Time,TemperatureF,DewpointF,PressureIn,WindDirection,WindDirectionDegrees,WindSpeedMPH,WindSpeedGustMPH,Humidity,HourlyPrecipIn,Conditions,Clouds,dailyrainin,SoftwareType,DateUTC
2013-01-29 00:00:00,68.5,65.1,30.25,NE,45,2.0,4.0,89,0.00,,,0.00,meteohub,2013-01-29 05:00:00,
2013-01-29 00:01:00,68.4,64.9,30.25,East,90,4.0,4.0,89,0.00,,,0.00,meteohub,2013-01-29 05:01:00,
2013-01-29 00:02:00,68.4,64.9,30.25,East,90,4.0,4.0,89,0.00,,,0.00,meteohub,2013-01-29 05:02:00,
2013-01-29 00:03:00,68.4,64.9,30.25,East,90,4.0,4.0,89,0.00,,,0.00,meteohub,2013-01-29 05:03:00,
2013-01-29 00:06:00,68.4,65.3,30.24,East,90,1.0,4.0,90,0.00,,,0.00,meteohub,2013-01-29 05:06:00,
2013-01-29 00:07:00,68.4,65.3,30.24,East,90,1.0,4.0,90,0.00,,,0.00,meteohub,2013-01-29 05:07:00,
2013-01-29 00:10:00,68.4,65.3,30.25,SE,135,4.0,4.0,90,0.00,,,0.00,meteohub,2013-01-29 05:10:00,
2013-01-29 00:12:00,68.4,65.3,30.25,North,0,2.0,4.0,90,0.00,,,0.00,meteohub,2013-01-29 05:12:00,
2013-01-29 00:14:00,68.4,65.3,30.25,SE,135,6.0,6.0,90,0.00,,,0.00,meteohub,2013-01-29 05:14:00,
2013-01-29 00:18:00,68.2,65.1,30.25,NE,45,3.0,6.0,90,0.00,,,0.00,meteohub,2013-01-29 05:18:00,
2013-01-29 00:20:00,68.2,65.1,30.24,East,90,3.0,6.0,90,0.00,,,0.00,meteohub,2013-01-29 05:20:00,
2013-01-29 00:23:00,68.0,64.9,30.24,SE,135,2.0,6.0,90,0.00,,,0.00,meteohub,2013-01-29 05:23:00,
2013-01-29 00:25:00,68.0,64.9,30.24,NE,45,2.0,6.0,90,0.00,,,0.00,meteohub,2013-01-29 05:25:00,
2013-01-29 00:26:00,68.0,64.9,30.24,East,90,1.0,6.0,90,0.00,,,0.00,meteohub,2013-01-29 05:26:00,
2013-01-29 00:28:00,68.0,64.9,30.24,East,90,4.0,6.0,90,0.00,,,0.00,meteohub,2013-01-29 05:28:00,
2013-01-29 00:30:00,68.0,64.9,30.24,East,90,1.0,6.0,90,0.00,,,0.00,meteohub,2013-01-29 05:30:00,
2013-01-29 00:32:00,67.8,65.5,30.24,East,90,1.0,4.0,92,0.00,,,0.00,meteohub,2013-01-29 05:32:00,
2013-01-29 00:33:00,67.8,65.5,30.25,NE,45,2.0,4.0,92,0.00,,,0.00,meteohub,2013-01-29 05:33:00,
2013-01-29 00:34:00,67.8,65.5,30.25,NE,45,1.0,4.0,92,0.00,,,0.00,meteohub,2013-01-29 05:34:00,
2013-01-29 00:35:00,67.8,65.5,30.25,NE,45,1.0,4.0,92,0.00,,,0.00,meteohub,2013-01-29 05:35:00,
2013-01-29 00:37:00,67.8,65.5,30.24,NE,45,2.0,4.0,92,0.00,,,0.00,meteohub,2013-01-29 05:37:00,
2013-01-29 00:38:00,67.8,65.5,30.25,East,90,1.0,4.0,92,0.00,,,0.00,meteohub,2013-01-29 05:38:00,
2013-01-29 00:40:00,67.6,65.3,30.24,North,0,2.0,4.0,92,0.00,,,0.00,meteohub,2013-01-29 05:40:00,
2013-01-29 00:42:00,67.6,65.3,30.24,East,90,1.0,4.0,92,0.00,,,0.00,meteohub,2013-01-29 05:42:00,
2013-01-29 00:43:00,67.6,65.3,30.24,East,90,1.0,4.0,92,0.00,,,0.00,meteohub,2013-01-29 05:43:00,
2013-01-29 00:45:00,67.6,65.3,30.24,North,0,2.0,4.0,92,0.00,,,0.00,meteohub,2013-01-29 05:45:00,
2013-01-29 00:48:00,67.6,65.3,30.25,NE,45,1.0,4.0,92,0.00,,,0.00,meteohub,2013-01-29 05:48:00,
2013-01-29 00:49:00,67.6,65.3,30.24,NE,45,2.0,4.0,92,0.00,,,0.00,meteohub,2013-01-29 05:49:00,
2013-01-29 00:50:00,67.5,65.1,30.25,East,90,2.0,4.0,92,0.00,,,0.00,meteohub,2013-01-29 05:50:00,
2013-01-29 00:51:00,67.5,65.1,30.25,SE,135,3.0,3.0,92,0.00,,,0.00,meteohub,2013-01-29 05:51:00,
2013-01-29 00:53:00,67.5,65.1,30.24,NE,45,2.0,3.0,92,0.00,,,0.00,meteohub,2013-01-29 05:53:00,
2013-01-29 00:55:00,67.5,65.1,30.24,North,0,2.0,4.0,92,0.00,,,0.00,meteohub,2013-01-29 05:55:00,
2013-01-29 00:56:00,67.5,65.1,30.24,NE,45,3.0,4.0,92,0.00,,,0.00,meteohub,2013-01-29 05:56:00,
2013-01-29 00:57:00,67.5,65.1,30.24,NE,45,2.0,4.0,92,0.00,,,0.00,meteohub,2013-01-29 05:57:00,
2013-01-29 00:59:00,67.5,65.1,30.24,East,90,2.0,4.0,92,0.00,,,0.00,meteohub,2013-01-29 05:59:00,
2013-01-29 01:02:00,67.5,65.1,30.24,NE,45,0.0,4.0,92,0.00,,,0.00,meteohub,2013-01-29 06:02:00,
2013-01-29 01:03:00,67.5,65.1,30.24,NE,45,0.0,4.0,92,0.00,,,0.00,meteohub,2013-01-29 06:03:00,
2013-01-29 01:04:00,67.3,64.9,30.24,NE,45,2.0,4.0,92,0.00,,,0.00,meteohub,2013-01-29 06:04:00,
2013-01-29 01:05:00,67.3,64.6,30.24,NE,45,2.0,4.0,91,0.00,,,0.00,meteohub,2013-01-29 06:05:00,
2013-01-29 01:07:00,67.3,64.6,30.24,East,90,2.0,4.0,91,0.00,,,0.00,meteohub,2013-01-29 06:07:00,
2013-01-29 01:08:00,67.3,64.6,30.24,East,90,2.0,4.0,91,0.00,,,0.00,meteohub,2013-01-29 06:08:00,
2013-01-29 01:10:00,67.3,64.6,30.24,East,90,2.0,4.0,91,0.00,,,0.00,meteohub,2013-01-29 06:10:00,
2013-01-29 01:11:00,67.3,64.6,30.24,East,90,2.0,4.0,91,0.00,,,0.00,meteohub,2013-01-29 06:11:00,
2013-01-29 01:12:00,67.3,64.6,30.24,SE,135,3.0,4.0,91,0.00,,,0.00,meteohub,2013-01-29 06:12:00,
2013-01-29 01:17:00,67.3,64.6,30.24,East,90,2.0,3.0,91,0.00,,,0.00,meteohub,2013-01-29 06:17:00,
2013-01-29 01:20:00,67.3,64.6,30.24,SE,135,2.0,3.0,91,0.00,,,0.00,meteohub,2013-01-29 06:20:00,
2013-01-29 01:21:00,67.3,64.6,30.23,SE,135,2.0,4.0,91,0.00,,,0.00,meteohub,2013-01-29 06:21:00,
2013-01-29 01:22:00,67.3,64.6,30.24,NE,45,2.0,4.0,91,0.00,,,0.00,meteohub,2013-01-29 06:22:00,
2013-01-29 01:24:00,67.3,64.2,30.24,East,90,2.0,4.0,90,0.00,,,0.00,meteohub,2013-01-29 06:24:00,
2013-01-29 01:27:00,67.3,64.2,30.23,South,180,2.0,4.0,90,0.00,,,0.00,meteohub,2013-01-29 06:27:00,
2013-01-29 01:28:00,67.5,64.4,30.23,East,90,3.0,4.0,90,0.00,,,0.00,meteohub,2013-01-29 06:28:00,
2013-01-29 01:30:00,67.5,64.4,30.23,East,90,2.0,4.0,90,0.00,,,0.00,meteohub,2013-01-29 06:30:00,
2013-01-29 01:32:00,67.5,64.0,30.23,East,90,4.0,4.0,89,0.00,,,0.00,meteohub,2013-01-29 06:32:00,
2013-01-29 01:35:00,67.5,64.0,30.23,East,90,2.0,4.0,89,0.00,,,0.00,meteohub,2013-01-29 06:35:00,
2013-01-29 01:36:00,67.5,64.0,30.23,East,90,1.0,4.0,89,0.00,,,0.00,meteohub,2013-01-29 06:36:00,
2013-01-29 01:38:00,67.3,63.9,30.23,SE,135,1.0,4.0,89,0.00,,,0.00,meteohub,2013-01-29 06:38:00,
2013-01-29 01:39:00,67.3,63.9,30.23,SE,135,1.0,4.0,89,0.00,,,0.00,meteohub,2013-01-29 06:39:00,
2013-01-29 01:40:00,67.3,63.9,30.23,East,90,2.0,4.0,89,0.00,,,0.00,meteohub,2013-01-29 06:40:00,
2013-01-29 01:42:00,67.3,63.9,30.23,SE,135,3.0,4.0,89,0.00,,,0.00,meteohub,2013-01-29 06:42:00,
2013-01-29 01:44:00,67.3,63.9,30.23,NE,45,1.0,4.0,89,0.00,,,0.00,meteohub,2013-01-29 06:44:00,
2013-01-29 01:45:00,67.3,63.9,30.23,SE,135,1.0,4.0,89,0.00,,,0.00,meteohub,2013-01-29 06:45:00,
2013-01-29 01:47:00,67.3,63.9,30.23,North,0,2.0,4.0,89,0.00,,,0.00,meteohub,2013-01-29 06:47:00,
2013-01-29 01:49:00,67.1,63.7,30.23,East,90,1.0,4.0,89,0.00,,,0.00,meteohub,2013-01-29 06:49:00,
2013-01-29 01:51:00,67.1,63.7,30.23,SE,135,3.0,3.0,89,0.00,,,0.00,meteohub,2013-01-29 06:51:00,
2013-01-29 01:52:00,67.1,63.5,30.23,NE,45,2.0,3.0,88,0.00,,,0.00,meteohub,2013-01-29 06:52:00,
2013-01-29 01:53:00,67.1,63.5,30.22,NE,45,1.0,3.0,88,0.00,,,0.00,meteohub,2013-01-29 06:53:00,
2013-01-29 01:55:00,67.1,63.5,30.22,NE,45,3.0,3.0,88,0.00,,,0.00,meteohub,2013-01-29 06:55:00,
2013-01-29 01:57:00,67.1,63.5,30.22,East,90,3.0,3.0,88,0.00,,,0.00,meteohub,2013-01-29 06:57:00,
2013-01-29 02:00:00,67.1,63.5,30.22,NE,45,4.0,4.0,88,0.00,,,0.00,meteohub,2013-01-29 07:00:00,
2013-01-29 02:01:00,66.9,63.3,30.22,SE,135,2.0,3.0,88,0.00,,,0.00,meteohub,2013-01-29 07:01:00,
2013-01-29 02:03:00,66.9,63.3,30.22,East,90,2.0,3.0,88,0.00,,,0.00,meteohub,2013-01-29 07:03:00,
2013-01-29 02:05:00,66.9,63.3,30.22,East,90,2.0,3.0,88,0.00,,,0.00,meteohub,2013-01-29 07:05:00,
2013-01-29 02:06:00,66.9,63.3,30.22,East,90,2.0,4.0,88,0.00,,,0.00,meteohub,2013-01-29 07:06:00,
2013-01-29 02:07:00,66.9,63.3,30.22,NE,45,5.0,5.0,88,0.00,,,0.00,meteohub,2013-01-29 07:07:00,
2013-01-29 02:10:00,66.9,63.3,30.22,East,90,2.0,4.0,88,0.00,,,0.00,meteohub,2013-01-29 07:10:00,
2013-01-29 02:12:00,66.9,63.3,30.22,East,90,2.0,5.0,88,0.00,,,0.00,meteohub,2013-01-29 07:12:00,
2013-01-29 02:14:00,66.9,63.3,30.22,East,90,2.0,5.0,88,0.00,,,0.00,meteohub,2013-01-29 07:14:00,
2013-01-29 02:15:00,66.9,63.3,30.22,NE,45,2.0,5.0,88,0.00,,,0.00,meteohub,2013-01-29 07:15:00,
2013-01-29 02:17:00,66.9,63.3,30.22,South,180,5.0,5.0,88,0.00,,,0.00,meteohub,2013-01-29 07:17:00,
2013-01-29 02:19:00,66.7,63.1,30.22,East,90,1.0,5.0,88,0.00,,,0.00,meteohub,2013-01-29 07:19:00,
2013-01-29 02:20:00,66.7,63.1,30.22,NE,45,2.0,5.0,88,0.00,,,0.00,meteohub,2013-01-29 07:20:00,
2013-01-29 02:22:00,66.7,63.1,30.22,South,180,2.0,5.0,88,0.00,,,0.00,meteohub,2013-01-29 07:22:00,
2013-01-29 02:23:00,66.7,63.1,30.22,South,180,2.0,5.0,88,0.00,,,0.00,meteohub,2013-01-29 07:23:00,
2013-01-29 02:26:00,66.7,63.1,30.21,SE,135,2.0,5.0,88,0.00,,,0.00,meteohub,2013-01-29 07:26:00,
2013-01-29 02:27:00,66.7,63.1,30.22,SE,135,2.0,5.0,88,0.00,,,0.00,meteohub,2013-01-29 07:27:00,
2013-01-29 02:28:00,66.7,63.1,30.21,SE,135,2.0,5.0,88,0.00,,,0.00,meteohub,2013-01-29 07:28:00,
2013-01-29 02:29:00,66.7,63.1,30.22,NE,45,3.0,5.0,88,0.00,,,0.00,meteohub,2013-01-29 07:29:00,
2013-01-29 02:33:00,66.6,63.0,30.22,East,90,2.0,5.0,88,0.00,,,0.00,meteohub,2013-01-29 07:33:00,
2013-01-29 02:34:00,66.6,63.0,30.21,NE,45,2.0,5.0,88,0.00,,,0.00,meteohub,2013-01-29 07:34:00,
2013-01-29 02:37:00,66.6,63.0,30.22,East,90,3.0,4.0,88,0.00,,,0.00,meteohub,2013-01-29 07:37:00,
2013-01-29 02:38:00,66.6,63.0,30.22,East,90,1.0,4.0,88,0.00,,,0.00,meteohub,2013-01-29 07:38:00,
2013-01-29 02:42:00,66.4,62.8,30.22,SE,135,2.0,4.0,88,0.00,,,0.00,meteohub,2013-01-29 07:42:00,
2013-01-29 02:43:00,66.4,62.8,30.21,East,90,2.0,4.0,88,0.00,,,0.00,meteohub,2013-01-29 07:43:00,
2013-01-29 02:44:00,66.2,62.6,30.21,NE,45,2.0,4.0,88,0.00,,,0.00,meteohub,2013-01-29 07:44:00,
2013-01-29 02:47:00,66.2,62.6,30.21,NE,45,3.0,3.0,88,0.00,,,0.00,meteohub,2013-01-29 07:47:00,
2013-01-29 02:48:00,66.2,62.6,30.21,NE,45,2.0,3.0,88,0.00,,,0.00,meteohub,2013-01-29 07:48:00,
2013-01-29 02:49:00,66.2,62.6,30.21,NE,45,1.0,3.0,88,0.00,,,0.00,meteohub,2013-01-29 07:49:00,
2013-01-29 02:50:00,66.2,62.6,30.22,SE,135,2.0,3.0,88,0.00,,,0.00,meteohub,2013-01-29 07:50:00,
2013-01-29 02:54:00,66.0,62.6,30.21,East,90,2.0,3.0,89,0.00,,,0.00,meteohub,2013-01-29 07:54:00,
2013-01-29 02:55:00,66.0,62.6,30.21,NE,45,1.0,3.0,89,0.00,,,0.00,meteohub,2013-01-29 07:55:00,
2013-01-29 02:57:00,66.0,63.0,30.22,East,90,2.0,3.0,90,0.00,,,0.00,meteohub,2013-01-29 07:57:00,
2013-01-29 02:59:00,66.0,63.0,30.21,East,90,2.0,3.0,90,0.00,,,0.00,meteohub,2013-01-29 07:59:00,
2013-01-29 03:01:00,65.8,62.8,30.21,East,90,2.0,3.0,90,0.00,,,0.00,meteohub,2013-01-29 08:01:00,
2013-01-29 03:02:00,65.8,62.8,30.21,East,90,1.0,3.0,90,0.00,,,0.00,meteohub,2013-01-29 08:02:00,
2013-01-29 03:03:00,65.8,62.8,30.21,NE,45,2.0,3.0,90,0.00,,,0.00,meteohub,2013-01-29 08:03:00,
2013-01-29 03:06:00,65.8,62.8,30.21,SE,135,2.0,3.0,90,0.00,,,0.00,meteohub,2013-01-29 08:06:00,
2013-01-29 03:07:00,65.7,62.6,30.21,East,90,2.0,3.0,90,0.00,,,0.00,meteohub,2013-01-29 08:07:00,
2013-01-29 03:08:00,65.7,62.6,30.22,SE,135,1.0,3.0,90,0.00,,,0.00,meteohub,2013-01-29 08:08:00,
2013-01-29 03:09:00,65.7,62.6,30.22,North,0,2.0,3.0,90,0.00,,,0.00,meteohub,2013-01-29 08:09:00,
2013-01-29 03:11:00,65.5,62.4,30.22,SE,135,1.0,2.0,90,0.00,,,0.00,meteohub,2013-01-29 08:11:00,
2013-01-29 03:13:00,65.5,62.4,30.22,NE,45,2.0,2.0,90,0.00,,,0.00,meteohub,2013-01-29 08:13:00,
2013-01-29 03:15:00,65.5,62.4,30.22,NE,45,1.0,2.0,90,0.00,,,0.00,meteohub,2013-01-29 08:15:00,
2013-01-29 03:17:00,65.5,62.4,30.22,NE,45,1.0,2.0,90,0.00,,,0.00,meteohub,2013-01-29 08:17:00,
2013-01-29 03:18:00,65.3,62.2,30.22,NE,45,2.0,2.0,90,0.00,,,0.00,meteohub,2013-01-29 08:18:00,
2013-01-29 03:21:00,65.3,62.6,30.22,NE,45,1.0,2.0,91,0.00,,,0.00,meteohub,2013-01-29 08:21:00,
2013-01-29 03:22:00,65.3,62.6,30.22,NE,45,0.0,2.0,91,0.00,,,0.00,meteohub,2013-01-29 08:22:00,
2013-01-29 03:24:00,65.3,62.6,30.22,NE,45,1.0,2.0,91,0.00,,,0.00,meteohub,2013-01-29 08:24:00,
2013-01-29 03:27:00,65.1,62.4,30.22,West,270,2.0,2.0,91,0.00,,,0.00,meteohub,2013-01-29 08:27:00,
2013-01-29 03:28:00,65.1,62.4,30.22,NE,45,1.0,2.0,91,0.00,,,0.00,meteohub,2013-01-29 08:28:00,
2013-01-29 03:29:00,65.1,62.4,30.22,NE,45,1.0,2.0,91,0.00,,,0.00,meteohub,2013-01-29 08:29:00,
2013-01-29 03:33:00,65.1,62.4,30.22,North,0,0.0,2.0,91,0.00,,,0.00,meteohub,2013-01-29 08:33:00,
2013-01-29 03:34:00,64.9,62.2,30.22,SE,135,1.0,2.0,91,0.00,,,0.00,meteohub,2013-01-29 08:34:00,
2013-01-29 03:36:00,64.9,62.2,30.22,NE,45,0.0,2.0,91,0.00,,,0.00,meteohub,2013-01-29 08:36:00,
2013-01-29 03:39:00,64.9,62.6,30.22,NE,45,0.0,2.0,92,0.00,,,0.00,meteohub,2013-01-29 08:39:00,
2013-01-29 03:40:00,64.9,62.6,30.22,NE,45,0.0,2.0,92,0.00,,,0.00,meteohub,2013-01-29 08:40:00,
2013-01-29 03:41:00,64.8,62.4,30.22,NE,45,0.0,2.0,92,0.00,,,0.00,meteohub,2013-01-29 08:41:00,
2013-01-29 03:44:00,64.8,62.4,30.22,NE,45,0.0,2.0,92,0.00,,,0.00,meteohub,2013-01-29 08:44:00,
2013-01-29 03:46:00,64.6,62.2,30.22,NE,45,0.0,1.0,92,0.00,,,0.00,meteohub,2013-01-29 08:46:00,
2013-01-29 03:47:00,64.6,62.2,30.22,NE,45,0.0,1.0,92,0.00,,,0.00,meteohub,2013-01-29 08:47:00,
2013-01-29 03:50:00,64.4,62.1,30.22,NE,45,0.0,1.0,92,0.00,,,0.00,meteohub,2013-01-29 08:50:00,
2013-01-29 03:51:00,64.4,62.1,30.22,NE,45,0.0,1.0,92,0.00,,,0.00,meteohub,2013-01-29 08:51:00,
2013-01-29 03:52:00,64.4,62.1,30.22,NE,45,0.0,1.0,92,0.00,,,0.00,meteohub,2013-01-29 08:52:00,
2013-01-29 03:55:00,64.2,61.9,30.22,NE,45,0.0,1.0,92,0.00,,,0.00,meteohub,2013-01-29 08:55:00,
2013-01-29 03:56:00,64.2,61.9,30.22,NE,45,0.0,0.0,92,0.00,,,0.00,meteohub,2013-01-29 08:56:00,
2013-01-29 03:57:00,64.2,61.9,30.22,NE,45,0.0,0.0,92,0.00,,,0.00,meteohub,2013-01-29 08:57:00,
2013-01-29 04:00:00,64.0,61.7,30.22,NE,45,0.0,0.0,92,0.00,,,0.00,meteohub,2013-01-29 09:00:00,
2013-01-29 04:02:00,64.0,61.7,30.22,NE,45,0.0,0.0,92,0.00,,,0.00,meteohub,2013-01-29 09:02:00,
2013-01-29 04:05:00,64.0,61.7,30.22,NE,45,1.0,0.0,92,0.00,,,0.00,meteohub,2013-01-29 09:05:00,
2013-01-29 04:07:00,63.9,61.5,30.21,East,90,1.0,0.0,92,0.00,,,0.00,meteohub,2013-01-29 09:07:00,
2013-01-29 04:10:00,63.9,61.5,30.21,NE,45,1.0,0.0,92,0.00,,,0.00,meteohub,2013-01-29 09:10:00,
2013-01-29 04:11:00,63.9,61.5,30.21,NE,45,2.0,2.0,92,0.00,,,0.00,meteohub,2013-01-29 09:11:00,
2013-01-29 04:14:00,63.9,61.9,30.21,NE,45,0.0,1.0,93,0.00,,,0.00,meteohub,2013-01-29 09:14:00,
2013-01-29 04:17:00,64.0,62.1,30.21,NE,45,0.0,2.0,93,0.00,,,0.00,meteohub,2013-01-29 09:17:00,
2013-01-29 04:20:00,63.9,61.9,30.21,East,90,1.0,2.0,93,0.00,,,0.00,meteohub,2013-01-29 09:20:00,
2013-01-29 04:21:00,63.9,61.9,30.21,NE,45,0.0,2.0,93,0.00,,,0.00,meteohub,2013-01-29 09:21:00,
2013-01-29 04:22:00,63.9,61.9,30.21,NE,45,1.0,2.0,93,0.00,,,0.00,meteohub,2013-01-29 09:22:00,
2013-01-29 04:25:00,63.9,61.9,30.22,NE,45,0.0,2.0,93,0.00,,,0.00,meteohub,2013-01-29 09:25:00,
2013-01-29 04:26:00,63.9,61.9,30.22,NE,45,0.0,2.0,93,0.00,,,0.00,meteohub,2013-01-29 09:26:00,
2013-01-29 04:27:00,63.9,61.9,30.22,NE,45,0.0,2.0,93,0.00,,,0.00,meteohub,2013-01-29 09:27:00,
2013-01-29 04:30:00,63.9,62.1,30.22,NE,45,0.0,1.0,94,0.00,,,0.00,meteohub,2013-01-29 09:30:00,
2013-01-29 04:31:00,63.9,62.1,30.22,NE,45,0.0,1.0,94,0.00,,,0.00,meteohub,2013-01-29 09:31:00,
2013-01-29 04:32:00,63.9,62.1,30.22,NE,45,0.0,1.0,94,0.00,,,0.00,meteohub,2013-01-29 09:32:00,
2013-01-29 04:37:00,63.9,62.1,30.22,NE,45,0.0,1.0,94,0.00,,,0.00,meteohub,2013-01-29 09:37:00,
2013-01-29 04:38:00,63.7,61.9,30.22,NE,45,0.0,1.0,94,0.00,,,0.00,meteohub,2013-01-29 09:38:00,
2013-01-29 04:39:00,63.7,61.9,30.22,NE,45,0.0,1.0,94,0.00,,,0.00,meteohub,2013-01-29 09:39:00,
2013-01-29 04:42:00,63.7,61.9,30.22,NE,45,0.0,0.0,94,0.00,,,0.00,meteohub,2013-01-29 09:42:00,
2013-01-29 04:45:00,63.7,61.9,30.22,NE,45,0.0,0.0,94,0.00,,,0.00,meteohub,2013-01-29 09:45:00,
2013-01-29 04:47:00,63.5,61.7,30.22,NE,45,0.0,0.0,94,0.00,,,0.00,meteohub,2013-01-29 09:47:00,
2013-01-29 04:48:00,63.5,61.7,30.22,NE,45,0.0,0.0,94,0.00,,,0.00,meteohub,2013-01-29 09:48:00,
2013-01-29 04:51:00,63.5,61.7,30.22,NE,45,0.0,0.0,94,0.00,,,0.00,meteohub,2013-01-29 09:51:00,
2013-01-29 04:54:00,63.5,62.1,30.22,NE,45,0.0,0.0,95,0.00,,,0.00,meteohub,2013-01-29 09:54:00,
2013-01-29 04:56:00,63.5,62.1,30.22,SE,135,1.0,0.0,95,0.00,,,0.00,meteohub,2013-01-29 09:56:00,
2013-01-29 04:59:00,63.5,62.1,30.22,East,90,1.0,0.0,95,0.00,,,0.00,meteohub,2013-01-29 09:59:00,
2013-01-29 05:00:00,63.5,62.1,30.21,NE,45,1.0,0.0,95,0.00,,,0.00,meteohub,2013-01-29 10:00:00,
2013-01-29 05:03:00,63.5,62.1,30.21,NE,45,0.0,1.0,95,0.00,,,0.00,meteohub,2013-01-29 10:03:00,
2013-01-29 05:04:00,63.5,62.1,30.22,NE,45,1.0,1.0,95,0.00,,,0.00,meteohub,2013-01-29 10:04:00,
2013-01-29 05:06:00,63.5,62.1,30.21,East,90,1.0,1.0,95,0.00,,,0.00,meteohub,2013-01-29 10:06:00,
2013-01-29 05:11:00,63.5,62.1,30.22,NE,45,1.0,2.0,95,0.00,,,0.00,meteohub,2013-01-29 10:11:00,
2013-01-29 05:12:00,63.5,62.1,30.22,East,90,2.0,2.0,95,0.00,,,0.00,meteohub,2013-01-29 10:12:00,
2013-01-29 05:13:00,63.5,62.1,30.21,East,90,0.0,2.0,95,0.00,,,0.00,meteohub,2013-01-29 10:13:00,
2013-01-29 05:17:00,63.5,62.1,30.22,NE,45,1.0,2.0,95,0.00,,,0.00,meteohub,2013-01-29 10:17:00,
2013-01-29 05:18:00,63.5,62.1,30.22,North,0,1.0,2.0,95,0.00,,,0.00,meteohub,2013-01-29 10:18:00,
2013-01-29 05:19:00,63.5,62.1,30.22,NE,45,1.0,2.0,95,0.00,,,0.00,meteohub,2013-01-29 10:19:00,
2013-01-29 05:21:00,63.5,62.1,30.22,NE,45,0.0,2.0,95,0.00,,,0.00,meteohub,2013-01-29 10:21:00,
2013-01-29 05:24:00,63.3,62.2,30.22,East,90,0.0,2.0,96,0.00,,,0.00,meteohub,2013-01-29 10:24:00,
2013-01-29 05:26:00,63.3,62.2,30.22,NE,45,1.0,2.0,96,0.00,,,0.00,meteohub,2013-01-29 10:26:00,
2013-01-29 05:27:00,63.3,62.2,30.22,East,90,0.0,2.0,96,0.00,,,0.00,meteohub,2013-01-29 10:27:00,
2013-01-29 05:30:00,63.3,62.2,30.22,SE,135,1.0,2.0,96,0.00,,,0.00,meteohub,2013-01-29 10:30:00,
2013-01-29 05:31:00,63.3,62.2,30.22,NE,45,1.0,1.0,96,0.00,,,0.00,meteohub,2013-01-29 10:31:00,
2013-01-29 05:32:00,63.3,62.2,30.22,NE,45,1.0,1.0,96,0.00,,,0.00,meteohub,2013-01-29 10:32:00,
2013-01-29 05:33:00,63.3,62.2,30.22,NE,45,0.0,1.0,96,0.00,,,0.00,meteohub,2013-01-29 10:33:00,
2013-01-29 05:36:00,63.1,62.1,30.22,East,90,1.0,1.0,96,0.00,,,0.00,meteohub,2013-01-29 10:36:00,
2013-01-29 05:37:00,63.3,62.2,30.22,East,90,1.0,1.0,96,0.00,,,0.00,meteohub,2013-01-29 10:37:00,
2013-01-29 05:38:00,63.1,62.1,30.22,NE,45,1.0,1.0,96,0.00,,,0.00,meteohub,2013-01-29 10:38:00,
2013-01-29 05:39:00,63.1,62.1,30.22,East,90,1.0,1.0,96,0.00,,,0.00,meteohub,2013-01-29 10:39:00,
2013-01-29 05:43:00,63.1,62.1,30.22,NE,45,0.0,2.0,96,0.00,,,0.00,meteohub,2013-01-29 10:43:00,
2013-01-29 05:44:00,63.1,62.1,30.22,East,90,0.0,2.0,96,0.00,,,0.00,meteohub,2013-01-29 10:44:00,
2013-01-29 05:45:00,63.1,62.1,30.22,East,90,0.0,2.0,96,0.00,,,0.00,meteohub,2013-01-29 10:45:00,
2013-01-29 05:49:00,63.1,62.1,30.22,NE,45,0.0,2.0,96,0.00,,,0.00,meteohub,2013-01-29 10:49:00,
2013-01-29 05:50:00,63.1,62.1,30.22,NE,45,0.0,2.0,96,0.00,,,0.00,meteohub,2013-01-29 10:50:00,
2013-01-29 05:51:00,63.1,62.1,30.23,NE,45,0.0,2.0,96,0.00,,,0.00,meteohub,2013-01-29 10:51:00,
2013-01-29 05:53:00,63.1,62.1,30.22,NE,45,0.0,1.0,96,0.00,,,0.00,meteohub,2013-01-29 10:53:00,
2013-01-29 05:55:00,63.1,62.1,30.22,NE,45,0.0,1.0,96,0.00,,,0.00,meteohub,2013-01-29 10:55:00,
2013-01-29 05:56:00,63.1,62.1,30.23,NE,45,0.0,1.0,96,0.00,,,0.00,meteohub,2013-01-29 10:56:00,
2013-01-29 05:57:00,63.1,62.1,30.22,NE,45,0.0,1.0,96,0.00,,,0.00,meteohub,2013-01-29 10:57:00,
2013-01-29 06:01:00,63.0,61.9,30.22,NE,45,0.0,1.0,96,0.00,,,0.00,meteohub,2013-01-29 11:01:00,
2013-01-29 06:03:00,63.0,61.9,30.23,East,90,1.0,1.0,96,0.00,,,0.00,meteohub,2013-01-29 11:03:00,
2013-01-29 06:06:00,63.0,61.9,30.22,East,90,0.0,1.0,96,0.00,,,0.00,meteohub,2013-01-29 11:06:00,
2013-01-29 06:08:00,63.0,61.9,30.23,East,90,1.0,1.0,96,0.00,,,0.00,meteohub,2013-01-29 11:08:00,
2013-01-29 06:11:00,63.0,61.9,30.23,NE,45,1.0,2.0,96,0.00,,,0.00,meteohub,2013-01-29 11:11:00,
2013-01-29 06:12:00,63.0,61.9,30.23,NE,45,1.0,2.0,96,0.00,,,0.00,meteohub,2013-01-29 11:12:00,
2013-01-29 06:13:00,63.0,61.9,30.22,East,90,1.0,2.0,96,0.00,,,0.00,meteohub,2013-01-29 11:13:00,
2013-01-29 06:15:00,63.0,62.1,30.23,NE,45,0.0,2.0,97,0.00,,,0.00,meteohub,2013-01-29 11:15:00,
2013-01-29 06:17:00,63.0,62.1,30.23,North,0,0.0,2.0,97,0.00,,,0.00,meteohub,2013-01-29 11:17:00,
2013-01-29 06:19:00,63.0,62.1,30.23,East,90,1.0,2.0,97,0.00,,,0.00,meteohub,2013-01-29 11:19:00,
2013-01-29 06:21:00,63.0,62.1,30.23,East,90,1.0,2.0,97,0.00,,,0.00,meteohub,2013-01-29 11:21:00,
2013-01-29 06:23:00,63.0,62.1,30.23,NE,45,2.0,2.0,97,0.00,,,0.00,meteohub,2013-01-29 11:23:00,
2013-01-29 06:24:00,63.0,62.1,30.22,NE,45,1.0,2.0,97,0.00,,,0.00,meteohub,2013-01-29 11:24:00,
2013-01-29 06:26:00,63.0,62.1,30.23,East,90,2.0,2.0,97,0.00,,,0.00,meteohub,2013-01-29 11:26:00,
2013-01-29 06:27:00,63.0,62.1,30.23,NE,45,1.0,2.0,97,0.00,,,0.00,meteohub,2013-01-29 11:27:00,
2013-01-29 06:28:00,63.0,62.1,30.23,East,90,2.0,2.0,97,0.00,,,0.00,meteohub,2013-01-29 11:28:00,
2013-01-29 06:32:00,63.1,62.2,30.22,East,90,0.0,2.0,97,0.00,,,0.00,meteohub,2013-01-29 11:32:00,
2013-01-29 06:34:00,63.1,62.2,30.23,NE,45,1.0,2.0,97,0.00,,,0.00,meteohub,2013-01-29 11:34:00,
2013-01-29 06:35:00,63.1,62.2,30.23,NE,45,2.0,2.0,97,0.00,,,0.00,meteohub,2013-01-29 11:35:00,
2013-01-29 06:37:00,63.1,62.2,30.23,East,90,1.0,2.0,97,0.00,,,0.00,meteohub,2013-01-29 11:37:00,
2013-01-29 06:39:00,63.1,62.2,30.23,NE,45,2.0,2.0,97,0.00,,,0.00,meteohub,2013-01-29 11:39:00,
2013-01-29 06:41:00,63.1,62.2,30.23,East,90,1.0,2.0,97,0.00,,,0.00,meteohub,2013-01-29 11:41:00,
2013-01-29 06:42:00,63.1,62.2,30.23,East,90,1.0,2.0,97,0.00,,,0.00,meteohub,2013-01-29 11:42:00,
2013-01-29 06:45:00,63.1,62.2,30.23,NE,45,2.0,2.0,97,0.00,,,0.00,meteohub,2013-01-29 11:45:00,
2013-01-29 06:46:00,63.1,62.2,30.23,NE,45,2.0,2.0,97,0.00,,,0.00,meteohub,2013-01-29 11:46:00,
2013-01-29 06:49:00,63.3,62.4,30.23,East,90,2.0,2.0,97,0.00,,,0.00,meteohub,2013-01-29 11:49:00,
2013-01-29 06:52:00,63.3,62.4,30.23,East,90,3.0,3.0,97,0.00,,,0.00,meteohub,2013-01-29 11:52:00,
2013-01-29 06:53:00,63.3,62.4,30.23,East,90,2.0,3.0,97,0.00,,,0.00,meteohub,2013-01-29 11:53:00,
2013-01-29 06:55:00,63.3,62.4,30.23,NE,45,2.0,3.0,97,0.00,,,0.00,meteohub,2013-01-29 11:55:00,
2013-01-29 06:56:00,63.3,62.4,30.23,NE,45,2.0,3.0,97,0.00,,,0.00,meteohub,2013-01-29 11:56:00,
2013-01-29 06:58:00,63.3,62.4,30.23,East,90,1.0,3.0,97,0.00,,,0.00,meteohub,2013-01-29 11:58:00,
2013-01-29 06:59:00,63.3,62.4,30.23,NE,45,1.0,3.0,97,0.00,,,0.00,meteohub,2013-01-29 11:59:00,
2013-01-29 07:01:00,63.3,62.4,30.23,East,90,1.0,3.0,97,0.00,,,0.00,meteohub,2013-01-29 12:01:00,
2013-01-29 07:05:00,63.3,62.4,30.23,SE,135,1.0,3.0,97,0.00,,,0.00,meteohub,2013-01-29 12:05:00,
2013-01-29 07:06:00,63.3,62.4,30.23,East,90,2.0,3.0,97,0.00,,,0.00,meteohub,2013-01-29 12:06:00,
2013-01-29 07:10:00,63.3,62.4,30.23,North,0,3.0,3.0,97,0.00,,,0.00,meteohub,2013-01-29 12:10:00,
2013-01-29 07:11:00,63.3,62.4,30.23,NE,45,1.0,3.0,97,0.00,,,0.00,meteohub,2013-01-29 12:11:00,
2013-01-29 07:15:00,63.3,62.4,30.23,East,90,2.0,3.0,97,0.00,,,0.00,meteohub,2013-01-29 12:15:00,
2013-01-29 07:17:00,63.3,62.4,30.23,SE,135,2.0,3.0,97,0.00,,,0.00,meteohub,2013-01-29 12:17:00,
2013-01-29 07:18:00,63.3,62.4,30.23,East,90,2.0,3.0,97,0.00,,,0.00,meteohub,2013-01-29 12:18:00,
2013-01-29 07:21:00,63.3,62.4,30.23,East,90,2.0,3.0,97,0.00,,,0.00,meteohub,2013-01-29 12:21:00,
2013-01-29 07:22:00,63.3,62.4,30.24,NE,45,1.0,3.0,97,0.00,,,0.00,meteohub,2013-01-29 12:22:00,
2013-01-29 07:23:00,63.3,62.4,30.23,NE,45,1.0,3.0,97,0.00,,,0.00,meteohub,2013-01-29 12:23:00,
2013-01-29 07:24:00,63.3,62.4,30.23,East,90,2.0,3.0,97,0.00,,,0.00,meteohub,2013-01-29 12:24:00,
2013-01-29 07:27:00,63.3,62.4,30.23,East,90,2.0,4.0,97,0.00,,,0.00,meteohub,2013-01-29 12:27:00,
2013-01-29 07:28:00,63.3,62.4,30.23,SE,135,2.0,4.0,97,0.00,,,0.00,meteohub,2013-01-29 12:28:00,
2013-01-29 07:29:00,63.3,62.4,30.23,East,90,2.0,4.0,97,0.00,,,0.00,meteohub,2013-01-29 12:29:00,
2013-01-29 07:32:00,63.5,62.6,30.23,South,180,2.0,4.0,97,0.00,,,0.00,meteohub,2013-01-29 12:32:00,
2013-01-29 07:33:00,63.5,62.6,30.23,SE,135,2.0,4.0,97,0.00,,,0.00,meteohub,2013-01-29 12:33:00,
2013-01-29 07:35:00,63.5,62.6,30.23,NE,45,2.0,4.0,97,0.00,,,0.00,meteohub,2013-01-29 12:35:00,
2013-01-29 07:36:00,63.5,62.6,30.23,East,90,2.0,4.0,97,0.00,,,0.00,meteohub,2013-01-29 12:36:00,
2013-01-29 07:37:00,63.5,62.6,30.23,NE,45,1.0,4.0,97,0.00,,,0.00,meteohub,2013-01-29 12:37:00,
2013-01-29 07:39:00,63.5,62.6,30.23,North,0,2.0,4.0,97,0.00,,,0.00,meteohub,2013-01-29 12:39:00,
2013-01-29 07:42:00,63.7,62.8,30.23,SE,135,2.0,4.0,97,0.00,,,0.00,meteohub,2013-01-29 12:42:00,
2013-01-29 07:43:00,63.7,62.8,30.23,East,90,2.0,4.0,97,0.00,,,0.00,meteohub,2013-01-29 12:43:00,
2013-01-29 07:45:00,63.7,62.8,30.23,East,90,3.0,4.0,97,0.00,,,0.00,meteohub,2013-01-29 12:45:00,
2013-01-29 07:47:00,63.9,63.0,30.24,SE,135,2.0,3.0,97,0.00,,,0.00,meteohub,2013-01-29 12:47:00,
2013-01-29 07:48:00,63.9,63.0,30.24,SE,135,2.0,3.0,97,0.00,,,0.00,meteohub,2013-01-29 12:48:00,
2013-01-29 07:49:00,63.9,63.0,30.24,East,90,3.0,3.0,97,0.00,,,0.00,meteohub,2013-01-29 12:49:00,
2013-01-29 07:51:00,63.9,63.0,30.24,NE,45,1.0,4.0,97,0.00,,,0.00,meteohub,2013-01-29 12:51:00,
2013-01-29 07:53:00,64.0,63.1,30.24,NE,45,2.0,4.0,97,0.00,,,0.00,meteohub,2013-01-29 12:53:00,
2013-01-29 07:54:00,64.0,63.1,30.24,NE,45,2.0,4.0,97,0.00,,,0.00,meteohub,2013-01-29 12:54:00,
2013-01-29 07:55:00,64.0,63.1,30.24,East,90,2.0,4.0,97,0.00,,,0.00,meteohub,2013-01-29 12:55:00,
2013-01-29 07:56:00,64.0,63.1,30.25,NE,45,2.0,4.0,97,0.00,,,0.00,meteohub,2013-01-29 12:56:00,
2013-01-29 07:58:00,64.2,63.3,30.24,SE,135,2.0,4.0,97,0.00,,,0.00,meteohub,2013-01-29 12:58:00,
2013-01-29 07:59:00,64.2,63.3,30.24,SE,135,2.0,4.0,97,0.00,,,0.00,meteohub,2013-01-29 12:59:00,
2013-01-29 08:02:00,64.2,63.3,30.25,NE,45,2.0,3.0,97,0.00,,,0.00,meteohub,2013-01-29 13:02:00,
2013-01-29 08:04:00,64.2,63.3,30.25,East,90,2.0,3.0,97,0.00,,,0.00,meteohub,2013-01-29 13:04:00,
2013-01-29 08:05:00,64.2,63.3,30.25,NE,45,2.0,3.0,97,0.00,,,0.00,meteohub,2013-01-29 13:05:00,
2013-01-29 08:06:00,64.2,63.3,30.25,East,90,3.0,6.0,97,0.00,,,0.00,meteohub,2013-01-29 13:06:00,
2013-01-29 08:10:00,64.4,64.0,30.25,East,90,2.0,6.0,99,0.00,,,0.00,meteohub,2013-01-29 13:10:00,
2013-01-29 08:11:00,64.6,64.2,30.25,East,90,2.0,6.0,99,0.00,,,0.00,meteohub,2013-01-29 13:11:00,
2013-01-29 08:12:00,64.6,64.2,30.24,NE,45,2.0,6.0,99,0.00,,,0.00,meteohub,2013-01-29 13:12:00,
2013-01-29 08:15:00,64.8,64.4,30.24,NE,45,1.0,6.0,99,0.00,,,0.00,meteohub,2013-01-29 13:15:00,
2013-01-29 08:16:00,64.8,64.4,30.25,NE,45,2.0,4.0,99,0.00,,,0.00,meteohub,2013-01-29 13:16:00,
2013-01-29 08:17:00,64.8,64.4,30.25,NE,45,2.0,4.0,99,0.00,,,0.00,meteohub,2013-01-29 13:17:00,
2013-01-29 08:21:00,64.9,64.6,30.25,East,90,2.0,3.0,99,0.00,,,0.00,meteohub,2013-01-29 13:21:00,
2013-01-29 08:22:00,64.9,64.6,30.24,East,90,2.0,3.0,99,0.00,,,0.00,meteohub,2013-01-29 13:22:00,
2013-01-29 08:23:00,65.1,64.8,30.25,East,90,2.0,3.0,99,0.00,,,0.00,meteohub,2013-01-29 13:23:00,
2013-01-29 08:25:00,65.1,64.8,30.24,East,90,2.0,3.0,99,0.00,,,0.00,meteohub,2013-01-29 13:25:00,
2013-01-29 08:27:00,65.1,64.8,30.24,SE,135,4.0,4.0,99,0.00,,,0.00,meteohub,2013-01-29 13:27:00,
2013-01-29 08:28:00,65.3,64.9,30.24,NNW,338,3.0,3.0,99,0.00,,,0.00,meteohub,2013-01-29 13:28:00,
2013-01-29 08:32:00,65.5,65.1,30.24,NE,45,2.0,4.0,99,0.00,,,0.00,meteohub,2013-01-29 13:32:00,
2013-01-29 08:33:00,65.7,65.3,30.24,East,90,2.0,4.0,99,0.00,,,0.00,meteohub,2013-01-29 13:33:00,
2013-01-29 08:34:00,65.7,65.3,30.24,East,90,2.0,4.0,99,0.00,,,0.00,meteohub,2013-01-29 13:34:00,
2013-01-29 08:36:00,65.7,65.3,30.24,North,0,3.0,4.0,99,0.00,,,0.00,meteohub,2013-01-29 13:36:00,
2013-01-29 08:37:00,65.7,65.3,30.24,North,0,3.0,4.0,99,0.00,,,0.00,meteohub,2013-01-29 13:37:00,
2013-01-29 08:38:00,65.8,65.5,30.24,NE,45,2.0,4.0,99,0.00,,,0.00,meteohub,2013-01-29 13:38:00,
2013-01-29 08:40:00,66.0,65.7,30.25,East,90,4.0,4.0,99,0.00,,,0.00,meteohub,2013-01-29 13:40:00,
2013-01-29 08:42:00,66.0,65.7,30.24,East,90,2.0,4.0,99,0.00,,,0.00,meteohub,2013-01-29 13:42:00,
2013-01-29 08:43:00,66.2,65.8,30.24,NE,45,2.0,4.0,99,0.00,,,0.00,meteohub,2013-01-29 13:43:00,
2013-01-29 08:46:00,66.6,66.2,30.24,North,0,3.0,4.0,99,0.00,,,0.00,meteohub,2013-01-29 13:46:00,
2013-01-29 08:48:00,66.6,66.2,30.25,NW,315,2.0,4.0,99,0.00,,,0.00,meteohub,2013-01-29 13:48:00,
2013-01-29 08:49:00,66.7,66.4,30.24,NE,45,2.0,4.0,99,0.00,,,0.00,meteohub,2013-01-29 13:49:00,
2013-01-29 08:50:00,66.9,66.6,30.24,East,90,4.0,4.0,99,0.00,,,0.00,meteohub,2013-01-29 13:50:00,
2013-01-29 08:53:00,67.1,66.7,30.25,SE,135,2.0,4.0,99,0.00,,,0.00,meteohub,2013-01-29 13:53:00,
2013-01-29 08:54:00,67.1,66.7,30.24,East,90,2.0,4.0,99,0.00,,,0.00,meteohub,2013-01-29 13:54:00,
2013-01-29 08:57:00,67.3,66.9,30.24,East,90,2.0,4.0,99,0.00,,,0.00,meteohub,2013-01-29 13:57:00,
2013-01-29 08:58:00,67.3,66.9,30.24,East,90,2.0,4.0,99,0.00,,,0.00,meteohub,2013-01-29 13:58:00,
2013-01-29 09:00:00,67.5,67.1,30.24,North,0,1.0,4.0,99,0.00,,,0.00,meteohub,2013-01-29 14:00:00,
2013-01-29 09:01:00,67.6,67.3,30.24,East,90,2.0,4.0,99,0.00,,,0.00,meteohub,2013-01-29 14:01:00,
2013-01-29 09:03:00,67.6,67.3,30.24,East,90,2.0,4.0,99,0.00,,,0.00,meteohub,2013-01-29 14:03:00,
2013-01-29 09:06:00,67.8,67.5,30.25,East,90,4.0,4.0,99,0.00,,,0.00,meteohub,2013-01-29 14:06:00,
2013-01-29 09:08:00,68.0,67.5,30.25,East,90,4.0,4.0,98,0.00,,,0.00,meteohub,2013-01-29 14:08:00,
2013-01-29 09:09:00,68.0,67.5,30.24,East,90,2.0,4.0,98,0.00,,,0.00,meteohub,2013-01-29 14:09:00,
2013-01-29 09:11:00,68.2,67.6,30.24,South,180,4.0,4.0,98,0.00,,,0.00,meteohub,2013-01-29 14:11:00,
2013-01-29 09:14:00,68.5,68.0,30.24,South,180,3.0,4.0,98,0.00,,,0.00,meteohub,2013-01-29 14:14:00,
2013-01-29 09:15:00,68.5,68.0,30.24,East,90,2.0,4.0,98,0.00,,,0.00,meteohub,2013-01-29 14:15:00,
2013-01-29 09:16:00,68.5,68.0,30.24,South,180,2.0,7.0,98,0.00,,,0.00,meteohub,2013-01-29 14:16:00,
2013-01-29 09:17:00,68.5,68.0,30.24,South,180,2.0,7.0,98,0.00,,,0.00,meteohub,2013-01-29 14:17:00,
2013-01-29 09:20:00,68.7,68.2,30.24,North,0,3.0,7.0,98,0.00,,,0.00,meteohub,2013-01-29 14:20:00,
2013-01-29 09:22:00,68.7,67.8,30.24,East,90,2.0,7.0,97,0.00,,,0.00,meteohub,2013-01-29 14:22:00,
2013-01-29 09:23:00,68.9,68.0,30.24,NE,45,2.0,7.0,97,0.00,,,0.00,meteohub,2013-01-29 14:23:00,
2013-01-29 09:26:00,68.9,68.0,30.24,East,90,2.0,7.0,97,0.00,,,0.00,meteohub,2013-01-29 14:26:00,
2013-01-29 09:29:00,69.3,68.4,30.24,East,90,1.0,7.0,97,0.00,,,0.00,meteohub,2013-01-29 14:29:00,
2013-01-29 09:31:00,69.4,68.5,30.24,SE,135,2.0,4.0,97,0.00,,,0.00,meteohub,2013-01-29 14:31:00,
2013-01-29 09:32:00,69.4,68.2,30.24,East,90,5.0,5.0,96,0.00,,,0.00,meteohub,2013-01-29 14:32:00,
2013-01-29 09:35:00,69.6,68.4,30.23,NE,45,2.0,4.0,96,0.00,,,0.00,meteohub,2013-01-29 14:35:00,
2013-01-29 09:37:00,70.0,68.5,30.23,East,90,3.0,5.0,95,0.00,,,0.00,meteohub,2013-01-29 14:37:00,
2013-01-29 09:40:00,70.3,68.5,30.23,SE,135,3.0,5.0,94,0.00,,,0.00,meteohub,2013-01-29 14:40:00,
2013-01-29 09:41:00,70.3,68.5,30.23,East,90,1.0,5.0,94,0.00,,,0.00,meteohub,2013-01-29 14:41:00,
2013-01-29 09:42:00,70.5,68.7,30.23,NE,45,2.0,5.0,94,0.00,,,0.00,meteohub,2013-01-29 14:42:00,
2013-01-29 09:43:00,70.5,68.7,30.23,East,90,5.0,5.0,94,0.00,,,0.00,meteohub,2013-01-29 14:43:00,
2013-01-29 09:46:00,70.9,68.7,30.23,NE,45,2.0,5.0,93,0.00,,,0.00,meteohub,2013-01-29 14:46:00,
2013-01-29 09:47:00,71.1,68.9,30.23,SE,135,2.0,5.0,93,0.00,,,0.00,meteohub,2013-01-29 14:47:00,
2013-01-29 09:48:00,71.2,69.1,30.23,East,90,4.0,5.0,93,0.00,,,0.00,meteohub,2013-01-29 14:48:00,
2013-01-29 09:49:00,71.2,69.1,30.23,East,90,4.0,5.0,93,0.00,,,0.00,meteohub,2013-01-29 14:49:00,
2013-01-29 09:51:00,71.6,68.9,30.24,South,180,4.0,5.0,91,0.00,,,0.00,meteohub,2013-01-29 14:51:00,
2013-01-29 09:52:00,71.6,68.9,30.24,South,180,4.0,5.0,91,0.00,,,0.00,meteohub,2013-01-29 14:52:00,
2013-01-29 09:54:00,72.0,69.3,30.23,East,90,2.0,5.0,91,0.00,,,0.00,meteohub,2013-01-29 14:54:00,
2013-01-29 09:57:00,72.1,69.1,30.23,East,90,2.0,5.0,90,0.00,,,0.00,meteohub,2013-01-29 14:57:00,
2013-01-29 09:59:00,72.5,68.7,30.23,NE,45,4.0,5.0,88,0.00,,,0.00,meteohub,2013-01-29 14:59:00,
2013-01-29 10:00:00,72.9,69.1,30.23,East,90,2.0,5.0,88,0.00,,,0.00,meteohub,2013-01-29 15:00:00,
2013-01-29 10:03:00,73.2,69.1,30.23,East,90,4.0,5.0,87,0.00,,,0.00,meteohub,2013-01-29 15:03:00,
2013-01-29 10:06:00,73.2,68.7,30.23,East,90,4.0,4.0,86,0.00,,,0.00,meteohub,2013-01-29 15:06:00,
2013-01-29 10:07:00,73.4,69.3,30.23,North,0,5.0,5.0,87,0.00,,,0.00,meteohub,2013-01-29 15:07:00,
2013-01-29 10:08:00,73.6,69.1,30.23,SE,135,3.0,4.0,86,0.00,,,0.00,meteohub,2013-01-29 15:08:00,
2013-01-29 10:12:00,73.8,68.9,30.22,NE,45,2.0,5.0,85,0.00,,,0.00,meteohub,2013-01-29 15:12:00,
2013-01-29 10:14:00,73.9,69.4,30.22,East,90,3.0,5.0,86,0.00,,,0.00,meteohub,2013-01-29 15:14:00,
2013-01-29 10:15:00,74.1,69.3,30.22,SW,225,4.0,5.0,85,0.00,,,0.00,meteohub,2013-01-29 15:15:00,
2013-01-29 10:17:00,74.3,69.4,30.23,East,90,3.0,5.0,85,0.00,,,0.00,meteohub,2013-01-29 15:17:00,
2013-01-29 10:19:00,74.5,69.6,30.22,East,90,4.0,5.0,85,0.00,,,0.00,meteohub,2013-01-29 15:19:00,
2013-01-29 10:21:00,74.7,69.4,30.22,NE,45,3.0,5.0,84,0.00,,,0.00,meteohub,2013-01-29 15:21:00,
2013-01-29 10:22:00,74.8,69.6,30.22,NE,45,4.0,5.0,84,0.00,,,0.00,meteohub,2013-01-29 15:22:00,
2013-01-29 10:25:00,75.0,69.1,30.22,SE,135,4.0,5.0,82,0.00,,,0.00,meteohub,2013-01-29 15:25:00,
2013-01-29 10:26:00,75.0,69.1,30.22,East,90,3.0,6.0,82,0.00,,,0.00,meteohub,2013-01-29 15:26:00,
2013-01-29 10:27:00,75.0,69.1,30.22,East,90,3.0,6.0,82,0.00,,,0.00,meteohub,2013-01-29 15:27:00,
2013-01-29 10:30:00,75.0,68.7,30.22,South,180,4.0,6.0,81,0.00,,,0.00,meteohub,2013-01-29 15:30:00,
2013-01-29 10:32:00,75.2,68.5,30.22,SE,135,7.0,7.0,80,0.00,,,0.00,meteohub,2013-01-29 15:32:00,
2013-01-29 10:33:00,75.2,68.5,30.22,South,180,4.0,6.0,80,0.00,,,0.00,meteohub,2013-01-29 15:33:00,
2013-01-29 10:35:00,75.2,68.2,30.22,East,90,5.0,8.0,79,0.00,,,0.00,meteohub,2013-01-29 15:35:00,
2013-01-29 10:37:00,75.2,68.2,30.22,East,90,5.0,8.0,79,0.00,,,0.00,meteohub,2013-01-29 15:37:00,
2013-01-29 10:38:00,75.2,68.2,30.22,NW,315,4.0,8.0,79,0.00,,,0.00,meteohub,2013-01-29 15:38:00,
2013-01-29 10:40:00,75.2,68.2,30.22,NE,45,4.0,8.0,79,0.00,,,0.00,meteohub,2013-01-29 15:40:00,
2013-01-29 10:42:00,75.2,68.2,30.21,East,90,4.0,8.0,79,0.00,,,0.00,meteohub,2013-01-29 15:42:00,
2013-01-29 10:43:00,75.4,68.4,30.22,NE,45,3.0,8.0,79,0.00,,,0.00,meteohub,2013-01-29 15:43:00,
2013-01-29 10:45:00,75.4,68.4,30.22,SE,135,5.0,8.0,79,0.00,,,0.00,meteohub,2013-01-29 15:45:00,
2013-01-29 10:48:00,75.7,68.7,30.21,NW,315,4.0,7.0,79,0.00,,,0.00,meteohub,2013-01-29 15:48:00,
2013-01-29 10:50:00,76.1,69.1,30.21,SE,135,7.0,7.0,79,0.00,,,0.00,meteohub,2013-01-29 15:50:00,
2013-01-29 10:51:00,76.3,69.3,30.21,North,0,3.0,5.0,79,0.00,,,0.00,meteohub,2013-01-29 15:51:00,
2013-01-29 10:54:00,76.5,69.1,30.21,SE,135,4.0,5.0,78,0.00,,,0.00,meteohub,2013-01-29 15:54:00,
2013-01-29 10:57:00,76.6,68.9,30.21,East,90,4.0,7.0,77,0.00,,,0.00,meteohub,2013-01-29 15:57:00,
2013-01-29 10:59:00,76.8,69.1,30.21,East,90,3.0,7.0,77,0.00,,,0.00,meteohub,2013-01-29 15:59:00,
2013-01-29 11:02:00,77.0,68.9,30.21,East,90,4.0,7.0,76,0.00,,,0.00,meteohub,2013-01-29 16:02:00,
2013-01-29 11:03:00,77.0,68.9,30.21,East,90,4.0,7.0,76,0.00,,,0.00,meteohub,2013-01-29 16:03:00,
2013-01-29 11:04:00,77.0,68.9,30.21,NE,45,6.0,7.0,76,0.00,,,0.00,meteohub,2013-01-29 16:04:00,
2013-01-29 11:05:00,77.0,68.5,30.21,SE,135,3.0,7.0,75,0.00,,,0.00,meteohub,2013-01-29 16:05:00,
2013-01-29 11:09:00,77.2,68.7,30.21,East,90,3.0,7.0,75,0.00,,,0.00,meteohub,2013-01-29 16:09:00,
2013-01-29 11:11:00,77.2,68.7,30.20,East,90,4.0,6.0,75,0.00,,,0.00,meteohub,2013-01-29 16:11:00,
2013-01-29 11:12:00,77.4,68.4,30.20,East,90,3.0,6.0,74,0.00,,,0.00,meteohub,2013-01-29 16:12:00,
2013-01-29 11:14:00,77.4,68.4,30.20,East,90,3.0,6.0,74,0.00,,,0.00,meteohub,2013-01-29 16:14:00,
2013-01-29 11:17:00,77.5,68.5,30.20,East,90,4.0,7.0,74,0.00,,,0.00,meteohub,2013-01-29 16:17:00,
2013-01-29 11:18:00,77.5,68.9,30.20,SE,135,3.0,7.0,75,0.00,,,0.00,meteohub,2013-01-29 16:18:00,
2013-01-29 11:20:00,77.9,68.9,30.20,East,90,2.0,7.0,74,0.00,,,0.00,meteohub,2013-01-29 16:20:00,
2013-01-29 11:22:00,77.9,68.9,30.20,East,90,8.0,8.0,74,0.00,,,0.00,meteohub,2013-01-29 16:22:00,
2013-01-29 11:23:00,78.1,69.1,30.20,South,180,4.0,7.0,74,0.00,,,0.00,meteohub,2013-01-29 16:23:00,
2013-01-29 11:25:00,78.1,69.1,30.20,North,0,4.0,8.0,74,0.00,,,0.00,meteohub,2013-01-29 16:25:00,
2013-01-29 11:26:00,78.1,69.1,30.20,North,0,4.0,8.0,74,0.00,,,0.00,meteohub,2013-01-29 16:26:00,
2013-01-29 11:29:00,78.1,68.7,30.20,NW,315,2.0,8.0,73,0.00,,,0.00,meteohub,2013-01-29 16:29:00,
2013-01-29 11:32:00,78.3,68.9,30.20,SE,135,3.0,8.0,73,0.00,,,0.00,meteohub,2013-01-29 16:32:00,
2013-01-29 11:34:00,78.4,69.1,30.20,SE,135,3.0,8.0,73,0.00,,,0.00,meteohub,2013-01-29 16:34:00,
2013-01-29 11:35:00,78.4,69.1,30.20,NE,45,2.0,8.0,73,0.00,,,0.00,meteohub,2013-01-29 16:35:00,
2013-01-29 11:38:00,78.6,69.3,30.19,East,90,4.0,8.0,73,0.00,,,0.00,meteohub,2013-01-29 16:38:00,
2013-01-29 11:39:00,78.8,69.1,30.19,South,180,4.0,8.0,72,0.00,,,0.00,meteohub,2013-01-29 16:39:00,
2013-01-29 11:42:00,79.0,68.7,30.19,North,0,4.0,6.0,71,0.00,,,0.00,meteohub,2013-01-29 16:42:00,
2013-01-29 11:44:00,79.2,68.5,30.19,East,90,4.0,6.0,70,0.00,,,0.00,meteohub,2013-01-29 16:44:00,
2013-01-29 11:46:00,79.2,68.2,30.19,SE,135,4.0,6.0,69,0.00,,,0.00,meteohub,2013-01-29 16:46:00,
2013-01-29 11:47:00,79.2,68.5,30.19,East,90,4.0,6.0,70,0.00,,,0.00,meteohub,2013-01-29 16:47:00,
2013-01-29 11:50:00,79.2,68.5,30.19,South,180,3.0,6.0,70,0.00,,,0.00,meteohub,2013-01-29 16:50:00,
2013-01-29 11:52:00,79.2,68.5,30.18,NE,45,4.0,6.0,70,0.00,,,0.00,meteohub,2013-01-29 16:52:00,
2013-01-29 11:54:00,79.3,68.7,30.19,SE,135,2.0,6.0,70,0.00,,,0.00,meteohub,2013-01-29 16:54:00,
2013-01-29 11:56:00,79.5,68.9,30.18,East,90,3.0,5.0,70,0.00,,,0.00,meteohub,2013-01-29 16:56:00,
2013-01-29 11:57:00,79.7,68.5,30.18,SW,225,6.0,6.0,69,0.00,,,0.00,meteohub,2013-01-29 16:57:00,
2013-01-29 12:00:00,79.7,68.2,30.18,SE,135,2.0,5.0,68,0.00,,,0.00,meteohub,2013-01-29 17:00:00,
2013-01-29 12:03:00,80.2,68.4,30.18,East,90,2.0,6.0,67,0.00,,,0.00,meteohub,2013-01-29 17:03:00,
2013-01-29 12:05:00,80.4,68.0,30.18,South,180,3.0,6.0,66,0.00,,,0.00,meteohub,2013-01-29 17:05:00,
2013-01-29 12:10:00,80.4,67.1,30.18,SE,135,4.0,7.0,64,0.00,,,0.00,meteohub,2013-01-29 17:10:00,
2013-01-29 12:11:00,80.2,66.9,30.18,East,90,4.0,9.0,64,0.00,,,0.00,meteohub,2013-01-29 17:11:00,
2013-01-29 12:12:00,80.2,66.9,30.18,East,90,4.0,9.0,64,0.00,,,0.00,meteohub,2013-01-29 17:12:00,
2013-01-29 12:16:00,80.2,66.9,30.18,SE,135,4.0,11.0,64,0.00,,,0.00,meteohub,2013-01-29 17:16:00,
2013-01-29 12:17:00,80.2,66.9,30.17,East,90,2.0,11.0,64,0.00,,,0.00,meteohub,2013-01-29 17:17:00,
2013-01-29 12:18:00,80.2,67.5,30.17,South,180,3.0,11.0,65,0.00,,,0.00,meteohub,2013-01-29 17:18:00,
2013-01-29 12:22:00,80.6,67.8,30.17,West,270,2.0,11.0,65,0.00,,,0.00,meteohub,2013-01-29 17:22:00,
2013-01-29 12:23:00,80.8,68.0,30.17,SW,225,7.0,11.0,65,0.00,,,0.00,meteohub,2013-01-29 17:23:00,
2013-01-29 12:25:00,81.0,67.6,30.17,West,270,8.0,11.0,64,0.00,,,0.00,meteohub,2013-01-29 17:25:00,
2013-01-29 12:27:00,81.0,67.1,30.17,SW,225,4.0,11.0,63,0.00,,,0.00,meteohub,2013-01-29 17:27:00,
2013-01-29 12:29:00,81.0,66.7,30.17,East,90,2.0,11.0,62,0.00,,,0.00,meteohub,2013-01-29 17:29:00,
2013-01-29 12:31:00,81.0,66.7,30.17,South,180,8.0,8.0,62,0.00,,,0.00,meteohub,2013-01-29 17:31:00,
2013-01-29 12:32:00,81.0,66.2,30.17,East,90,4.0,8.0,61,0.00,,,0.00,meteohub,2013-01-29 17:32:00,
2013-01-29 12:33:00,81.0,66.2,30.17,South,180,10.0,10.0,61,0.00,,,0.00,meteohub,2013-01-29 17:33:00,
2013-01-29 12:35:00,81.0,66.7,30.17,SE,135,4.0,8.0,62,0.00,,,0.00,meteohub,2013-01-29 17:35:00,
2013-01-29 12:37:00,81.3,67.1,30.17,East,90,4.0,10.0,62,0.00,,,0.00,meteohub,2013-01-29 17:37:00,
2013-01-29 12:38:00,81.3,67.1,30.17,East,90,4.0,10.0,62,0.00,,,0.00,meteohub,2013-01-29 17:38:00,
2013-01-29 12:40:00,81.3,66.6,30.17,SW,225,4.0,10.0,61,0.00,,,0.00,meteohub,2013-01-29 17:40:00,
2013-01-29 12:41:00,81.3,66.6,30.17,North,0,4.0,10.0,61,0.00,,,0.00,meteohub,2013-01-29 17:41:00,
2013-01-29 12:43:00,81.3,66.6,30.16,South,180,3.0,10.0,61,0.00,,,0.00,meteohub,2013-01-29 17:43:00,
2013-01-29 12:46:00,81.3,66.0,30.17,SW,225,8.0,10.0,60,0.00,,,0.00,meteohub,2013-01-29 17:46:00,
2013-01-29 12:47:00,81.3,66.0,30.17,SW,225,8.0,10.0,60,0.00,,,0.00,meteohub,2013-01-29 17:47:00,
2013-01-29 12:49:00,81.3,65.1,30.16,South,180,8.0,10.0,58,0.00,,,0.00,meteohub,2013-01-29 17:49:00,
2013-01-29 12:52:00,81.3,65.7,30.16,East,90,3.0,8.0,59,0.00,,,0.00,meteohub,2013-01-29 17:52:00,
2013-01-29 12:53:00,81.0,65.3,30.16,SW,225,6.0,8.0,59,0.00,,,0.00,meteohub,2013-01-29 17:53:00,
2013-01-29 12:54:00,81.0,65.3,30.16,SW,225,6.0,8.0,59,0.00,,,0.00,meteohub,2013-01-29 17:54:00,
2013-01-29 12:56:00,81.0,65.3,30.16,SW,225,4.0,8.0,59,0.00,,,0.00,meteohub,2013-01-29 17:56:00,
2013-01-29 12:58:00,81.0,65.8,30.16,SE,135,5.0,8.0,60,0.00,,,0.00,meteohub,2013-01-29 17:58:00,
2013-01-29 13:00:00,81.0,65.8,30.16,South,180,4.0,8.0,60,0.00,,,0.00,meteohub,2013-01-29 18:00:00,
2013-01-29 13:01:00,81.0,65.8,30.16,NE,45,2.0,8.0,60,0.00,,,0.00,meteohub,2013-01-29 18:01:00,
2013-01-29 13:02:00,81.3,66.0,30.16,SE,135,2.0,8.0,60,0.00,,,0.00,meteohub,2013-01-29 18:02:00,
2013-01-29 13:05:00,81.3,66.0,30.15,SW,225,6.0,8.0,60,0.00,,,0.00,meteohub,2013-01-29 18:05:00,
2013-01-29 13:06:00,81.3,66.0,30.15,NW,315,8.0,8.0,60,0.00,,,0.00,meteohub,2013-01-29 18:06:00,
2013-01-29 13:07:00,81.3,65.7,30.15,SW,225,3.0,8.0,59,0.00,,,0.00,meteohub,2013-01-29 18:07:00,
2013-01-29 13:09:00,81.3,66.0,30.15,East,90,3.0,8.0,60,0.00,,,0.00,meteohub,2013-01-29 18:09:00,
2013-01-29 13:10:00,81.3,66.0,30.15,East,90,3.0,8.0,60,0.00,,,0.00,meteohub,2013-01-29 18:10:00,
2013-01-29 13:12:00,81.3,66.0,30.15,East,90,3.0,10.0,60,0.00,,,0.00,meteohub,2013-01-29 18:12:00,
2013-01-29 13:16:00,81.9,66.6,30.14,SE,135,3.0,10.0,60,0.00,,,0.00,meteohub,2013-01-29 18:16:00,
2013-01-29 13:17:00,81.9,66.6,30.15,West,270,2.0,10.0,60,0.00,,,0.00,meteohub,2013-01-29 18:17:00,
2013-01-29 13:19:00,82.4,66.2,30.15,East,90,5.0,10.0,58,0.00,,,0.00,meteohub,2013-01-29 18:19:00,
2013-01-29 13:20:00,82.4,66.2,30.15,SE,135,2.0,10.0,58,0.00,,,0.00,meteohub,2013-01-29 18:20:00,
2013-01-29 13:21:00,82.4,66.2,30.14,South,180,7.0,10.0,58,0.00,,,0.00,meteohub,2013-01-29 18:21:00,
2013-01-29 13:22:00,82.4,65.7,30.14,East,90,3.0,10.0,57,0.00,,,0.00,meteohub,2013-01-29 18:22:00,
2013-01-29 13:24:00,82.4,65.7,30.14,NW,315,6.0,10.0,57,0.00,,,0.00,meteohub,2013-01-29 18:24:00,
2013-01-29 13:25:00,82.4,66.2,30.14,South,180,5.0,8.0,58,0.00,,,0.00,meteohub,2013-01-29 18:25:00,
2013-01-29 13:28:00,82.2,66.4,30.14,SW,225,5.0,8.0,59,0.00,,,0.00,meteohub,2013-01-29 18:28:00,
2013-01-29 13:29:00,82.2,66.9,30.14,SW,225,3.0,8.0,60,0.00,,,0.00,meteohub,2013-01-29 18:29:00,
2013-01-29 13:30:00,82.2,66.9,30.14,SE,135,2.0,8.0,60,0.00,,,0.00,meteohub,2013-01-29 18:30:00,
2013-01-29 13:34:00,82.2,66.9,30.14,SW,225,11.0,11.0,60,0.00,,,0.00,meteohub,2013-01-29 18:34:00,
2013-01-29 13:36:00,81.7,66.4,30.14,SW,225,8.0,11.0,60,0.00,,,0.00,meteohub,2013-01-29 18:36:00,
2013-01-29 13:37:00,81.0,66.2,30.14,SW,225,6.0,11.0,61,0.00,,,0.00,meteohub,2013-01-29 18:37:00,
2013-01-29 13:39:00,80.8,66.6,30.14,SW,225,4.0,11.0,62,0.00,,,0.00,meteohub,2013-01-29 18:39:00,
2013-01-29 13:43:00,81.0,66.2,30.14,South,180,9.0,11.0,61,0.00,,,0.00,meteohub,2013-01-29 18:43:00,
2013-01-29 13:44:00,80.6,65.8,30.14,SE,135,8.0,11.0,61,0.00,,,0.00,meteohub,2013-01-29 18:44:00,
2013-01-29 13:45:00,80.4,66.7,30.14,SW,225,8.0,11.0,63,0.00,,,0.00,meteohub,2013-01-29 18:45:00,
2013-01-29 13:49:00,80.1,66.4,30.14,SW,225,8.0,11.0,63,0.00,,,0.00,meteohub,2013-01-29 18:49:00,
2013-01-29 13:50:00,80.1,66.4,30.14,SW,225,10.0,11.0,63,0.00,,,0.00,meteohub,2013-01-29 18:50:00,
2013-01-29 13:55:00,79.5,66.2,30.14,South,180,6.0,13.0,64,0.00,,,0.00,meteohub,2013-01-29 18:55:00,
2013-01-29 13:56:00,79.5,66.2,30.14,South,180,8.0,13.0,64,0.00,,,0.00,meteohub,2013-01-29 18:56:00,
2013-01-29 13:57:00,79.5,66.2,30.13,SW,225,10.0,13.0,64,0.00,,,0.00,meteohub,2013-01-29 18:57:00,
2013-01-29 14:00:00,79.5,66.7,30.14,SW,225,12.0,13.0,65,0.00,,,0.00,meteohub,2013-01-29 19:00:00,
2013-01-29 14:01:00,79.5,66.7,30.13,SW,225,8.0,13.0,65,0.00,,,0.00,meteohub,2013-01-29 19:01:00,
2013-01-29 14:02:00,79.3,66.6,30.14,South,180,11.0,13.0,65,0.00,,,0.00,meteohub,2013-01-29 19:02:00,
2013-01-29 14:03:00,79.2,66.7,30.14,South,180,8.0,13.0,66,0.00,,,0.00,meteohub,2013-01-29 19:03:00,
2013-01-29 14:06:00,79.3,66.9,30.13,SW,225,8.0,12.0,66,0.00,,,0.00,meteohub,2013-01-29 19:06:00,
2013-01-29 14:07:00,79.2,66.7,30.14,SW,225,10.0,12.0,66,0.00,,,0.00,meteohub,2013-01-29 19:07:00,
2013-01-29 14:09:00,79.0,67.1,30.14,SW,225,9.0,12.0,67,0.00,,,0.00,meteohub,2013-01-29 19:09:00,
2013-01-29 14:11:00,78.8,66.9,30.13,SW,225,8.0,12.0,67,0.00,,,0.00,meteohub,2013-01-29 19:11:00,
2013-01-29 14:12:00,78.8,67.3,30.13,South,180,8.0,12.0,68,0.00,,,0.00,meteohub,2013-01-29 19:12:00,
2013-01-29 14:13:00,78.8,67.3,30.14,SW,225,10.0,12.0,68,0.00,,,0.00,meteohub,2013-01-29 19:13:00,
2013-01-29 14:14:00,79.0,67.5,30.14,NNW,338,11.0,12.0,68,0.00,,,0.00,meteohub,2013-01-29 19:14:00,
2013-01-29 14:18:00,78.8,67.3,30.14,SW,225,9.0,12.0,68,0.00,,,0.00,meteohub,2013-01-29 19:18:00,
2013-01-29 14:19:00,78.8,67.3,30.14,SW,225,9.0,12.0,68,0.00,,,0.00,meteohub,2013-01-29 19:19:00,
2013-01-29 14:20:00,78.8,67.3,30.13,South,180,7.0,12.0,68,0.00,,,0.00,meteohub,2013-01-29 19:20:00,
2013-01-29 14:21:00,78.8,67.3,30.13,South,180,7.0,12.0,68,0.00,,,0.00,meteohub,2013-01-29 19:21:00,
2013-01-29 14:24:00,78.6,67.6,30.14,South,180,6.0,12.0,69,0.00,,,0.00,meteohub,2013-01-29 19:24:00,
2013-01-29 14:26:00,78.8,67.8,30.14,West,270,6.0,12.0,69,0.00,,,0.00,meteohub,2013-01-29 19:26:00,
2013-01-29 14:27:00,79.0,67.5,30.14,South,180,8.0,12.0,68,0.00,,,0.00,meteohub,2013-01-29 19:27:00,
2013-01-29 14:29:00,79.2,67.6,30.13,WSW,248,5.0,12.0,68,0.00,,,0.00,meteohub,2013-01-29 19:29:00,
2013-01-29 14:31:00,79.5,68.0,30.13,WSW,248,7.0,12.0,68,0.00,,,0.00,meteohub,2013-01-29 19:31:00,
2013-01-29 14:33:00,79.3,67.5,30.13,South,180,15.0,15.0,67,0.00,,,0.00,meteohub,2013-01-29 19:33:00,
2013-01-29 14:34:00,79.0,67.5,30.13,SW,225,11.0,12.0,68,0.00,,,0.00,meteohub,2013-01-29 19:34:00,
2013-01-29 14:35:00,79.0,67.5,30.13,SW,225,11.0,12.0,68,0.00,,,0.00,meteohub,2013-01-29 19:35:00,
2013-01-29 14:36:00,78.6,67.6,30.13,SW,225,8.0,15.0,69,0.00,,,0.00,meteohub,2013-01-29 19:36:00,
2013-01-29 14:39:00,78.6,68.0,30.13,SW,225,10.0,15.0,70,0.00,,,0.00,meteohub,2013-01-29 19:39:00,
2013-01-29 14:40:00,78.8,67.8,30.13,SW,225,11.0,15.0,69,0.00,,,0.00,meteohub,2013-01-29 19:40:00,
2013-01-29 14:42:00,78.8,67.8,30.13,SW,225,11.0,15.0,69,0.00,,,0.00,meteohub,2013-01-29 19:42:00,
2013-01-29 14:44:00,78.4,67.8,30.13,SW,225,11.0,15.0,70,0.00,,,0.00,meteohub,2013-01-29 19:44:00,
2013-01-29 14:45:00,78.3,67.6,30.13,SE,135,11.0,15.0,70,0.00,,,0.00,meteohub,2013-01-29 19:45:00,
2013-01-29 14:47:00,78.1,67.8,30.12,West,270,7.0,15.0,71,0.00,,,0.00,meteohub,2013-01-29 19:47:00,
2013-01-29 14:49:00,78.3,68.5,30.12,SW,225,5.0,15.0,72,0.00,,,0.00,meteohub,2013-01-29 19:49:00,
2013-01-29 14:51:00,78.4,68.2,30.12,South,180,8.0,14.0,71,0.00,,,0.00,meteohub,2013-01-29 19:51:00,
2013-01-29 14:52:00,78.4,68.2,30.12,SW,225,5.0,14.0,71,0.00,,,0.00,meteohub,2013-01-29 19:52:00,
2013-01-29 14:54:00,78.6,68.4,30.12,SE,135,2.0,14.0,71,0.00,,,0.00,meteohub,2013-01-29 19:54:00,
2013-01-29 14:57:00,78.4,67.8,30.12,SW,225,10.0,11.0,70,0.00,,,0.00,meteohub,2013-01-29 19:57:00,
2013-01-29 14:59:00,78.3,68.0,30.12,SW,225,4.0,11.0,71,0.00,,,0.00,meteohub,2013-01-29 19:59:00,
2013-01-29 15:00:00,78.4,68.2,30.12,SW,225,4.0,11.0,71,0.00,,,0.00,meteohub,2013-01-29 20:00:00,
2013-01-29 15:03:00,78.3,68.0,30.12,SE,135,8.0,11.0,71,0.00,,,0.00,meteohub,2013-01-29 20:03:00,
2013-01-29 15:05:00,78.1,67.5,30.12,West,270,8.0,11.0,70,0.00,,,0.00,meteohub,2013-01-29 20:05:00,
2013-01-29 15:07:00,77.9,67.8,30.12,South,180,8.0,11.0,71,0.00,,,0.00,meteohub,2013-01-29 20:07:00,
2013-01-29 15:09:00,77.5,67.8,30.12,South,180,8.0,11.0,72,0.00,,,0.00,meteohub,2013-01-29 20:09:00,
2013-01-29 15:12:00,77.2,67.8,30.12,South,180,8.0,11.0,73,0.00,,,0.00,meteohub,2013-01-29 20:12:00,
2013-01-29 15:15:00,77.0,67.6,30.12,SE,135,4.0,11.0,73,0.00,,,0.00,meteohub,2013-01-29 20:15:00,
2013-01-29 15:17:00,77.0,67.6,30.12,South,180,8.0,11.0,73,0.00,,,0.00,meteohub,2013-01-29 20:17:00,
2013-01-29 15:18:00,76.8,67.8,30.12,SW,225,9.0,11.0,74,0.00,,,0.00,meteohub,2013-01-29 20:18:00,
2013-01-29 15:19:00,76.6,67.6,30.12,SW,225,8.0,11.0,74,0.00,,,0.00,meteohub,2013-01-29 20:19:00,
2013-01-29 15:20:00,76.6,68.2,30.12,South,180,7.0,11.0,75,0.00,,,0.00,meteohub,2013-01-29 20:20:00,
2013-01-29 15:23:00,76.6,68.2,30.12,SW,225,7.0,11.0,75,0.00,,,0.00,meteohub,2013-01-29 20:23:00,
2013-01-29 15:25:00,76.8,68.4,30.12,SW,225,5.0,11.0,75,0.00,,,0.00,meteohub,2013-01-29 20:25:00,
2013-01-29 15:27:00,77.0,68.0,30.12,South,180,5.0,11.0,74,0.00,,,0.00,meteohub,2013-01-29 20:27:00,
2013-01-29 15:28:00,77.5,68.5,30.11,South,180,5.0,11.0,74,0.00,,,0.00,meteohub,2013-01-29 20:28:00,
2013-01-29 15:31:00,78.1,68.4,30.11,SW,225,12.0,12.0,72,0.00,,,0.00,meteohub,2013-01-29 20:31:00,
2013-01-29 15:32:00,78.1,68.4,30.12,SW,225,12.0,12.0,72,0.00,,,0.00,meteohub,2013-01-29 20:32:00,
2013-01-29 15:36:00,77.0,67.6,30.11,SW,225,8.0,12.0,73,0.00,,,0.00,meteohub,2013-01-29 20:36:00,
2013-01-29 15:37:00,77.0,67.6,30.11,SW,225,8.0,12.0,73,0.00,,,0.00,meteohub,2013-01-29 20:37:00,
2013-01-29 15:38:00,76.5,68.0,30.11,SW,225,10.0,12.0,75,0.00,,,0.00,meteohub,2013-01-29 20:38:00,
2013-01-29 15:41:00,75.9,67.8,30.11,SE,135,9.0,12.0,76,0.00,,,0.00,meteohub,2013-01-29 20:41:00,
2013-01-29 15:42:00,75.9,67.8,30.11,South,180,10.0,12.0,76,0.00,,,0.00,meteohub,2013-01-29 20:42:00,
2013-01-29 15:44:00,75.7,67.6,30.11,South,180,8.0,12.0,76,0.00,,,0.00,meteohub,2013-01-29 20:44:00,
2013-01-29 15:46:00,75.7,67.6,30.11,SW,225,8.0,12.0,76,0.00,,,0.00,meteohub,2013-01-29 20:46:00,
2013-01-29 15:47:00,75.7,67.6,30.11,South,180,4.0,12.0,76,0.00,,,0.00,meteohub,2013-01-29 20:47:00,
2013-01-29 15:51:00,75.7,67.6,30.12,SW,225,6.0,10.0,76,0.00,,,0.00,meteohub,2013-01-29 20:51:00,
2013-01-29 15:52:00,75.6,67.5,30.11,SE,135,11.0,11.0,76,0.00,,,0.00,meteohub,2013-01-29 20:52:00,
2013-01-29 15:53:00,75.4,67.3,30.11,SW,225,3.0,10.0,76,0.00,,,0.00,meteohub,2013-01-29 20:53:00,
2013-01-29 15:56:00,75.0,67.6,30.11,SE,135,8.0,11.0,78,0.00,,,0.00,meteohub,2013-01-29 20:56:00,
2013-01-29 15:58:00,74.8,67.5,30.11,SW,225,9.0,11.0,78,0.00,,,0.00,meteohub,2013-01-29 20:58:00,
2013-01-29 16:00:00,74.7,67.3,30.11,North,0,5.0,11.0,78,0.00,,,0.00,meteohub,2013-01-29 21:00:00,
2013-01-29 16:02:00,74.5,67.5,30.11,SE,135,8.0,11.0,79,0.00,,,0.00,meteohub,2013-01-29 21:02:00,
2013-01-29 16:04:00,74.5,67.5,30.11,East,90,7.0,11.0,79,0.00,,,0.00,meteohub,2013-01-29 21:04:00,
2013-01-29 16:05:00,74.3,67.3,30.11,South,180,11.0,11.0,79,0.00,,,0.00,meteohub,2013-01-29 21:05:00,
2013-01-29 16:08:00,74.1,67.6,30.11,SW,225,3.0,11.0,80,0.00,,,0.00,meteohub,2013-01-29 21:08:00,
2013-01-29 16:09:00,74.1,67.6,30.11,SW,225,6.0,11.0,80,0.00,,,0.00,meteohub,2013-01-29 21:09:00,
2013-01-29 16:10:00,74.1,67.6,30.11,SW,225,7.0,12.0,80,0.00,,,0.00,meteohub,2013-01-29 21:10:00,
2013-01-29 16:11:00,74.1,67.6,30.11,SW,225,8.0,12.0,80,0.00,,,0.00,meteohub,2013-01-29 21:11:00,
2013-01-29 16:15:00,73.9,67.5,30.11,SW,225,8.0,12.0,80,0.00,,,0.00,meteohub,2013-01-29 21:15:00,
2013-01-29 16:16:00,73.9,67.5,30.11,South,180,4.0,12.0,80,0.00,,,0.00,meteohub,2013-01-29 21:16:00,
2013-01-29 16:19:00,73.9,67.5,30.12,South,180,6.0,12.0,80,0.00,,,0.00,meteohub,2013-01-29 21:19:00,
2013-01-29 16:21:00,73.9,67.5,30.11,NE,45,6.0,11.0,80,0.00,,,0.00,meteohub,2013-01-29 21:21:00,
2013-01-29 16:23:00,73.9,67.5,30.11,South,180,10.0,11.0,80,0.00,,,0.00,meteohub,2013-01-29 21:23:00,
2013-01-29 16:26:00,73.8,67.3,30.11,South,180,6.0,10.0,80,0.00,,,0.00,meteohub,2013-01-29 21:26:00,
2013-01-29 16:29:00,73.8,67.6,30.12,SW,225,8.0,10.0,81,0.00,,,0.00,meteohub,2013-01-29 21:29:00,
2013-01-29 16:31:00,73.8,67.6,30.11,SW,225,10.0,10.0,81,0.00,,,0.00,meteohub,2013-01-29 21:31:00,
2013-01-29 16:32:00,73.8,67.6,30.11,SW,225,10.0,10.0,81,0.00,,,0.00,meteohub,2013-01-29 21:32:00,
2013-01-29 16:34:00,73.6,67.5,30.11,NW,315,7.0,10.0,81,0.00,,,0.00,meteohub,2013-01-29 21:34:00,
2013-01-29 16:37:00,73.4,67.3,30.12,South,180,8.0,10.0,81,0.00,,,0.00,meteohub,2013-01-29 21:37:00,
2013-01-29 16:38:00,73.4,67.3,30.12,SE,135,8.0,10.0,81,0.00,,,0.00,meteohub,2013-01-29 21:38:00,
2013-01-29 16:39:00,73.4,67.3,30.12,SW,225,5.0,10.0,81,0.00,,,0.00,meteohub,2013-01-29 21:39:00,
2013-01-29 16:42:00,73.6,67.5,30.11,SW,225,10.0,11.0,81,0.00,,,0.00,meteohub,2013-01-29 21:42:00,
2013-01-29 16:45:00,73.4,67.3,30.11,South,180,8.0,11.0,81,0.00,,,0.00,meteohub,2013-01-29 21:45:00,
2013-01-29 16:47:00,73.4,67.6,30.11,South,180,6.0,11.0,82,0.00,,,0.00,meteohub,2013-01-29 21:47:00,
2013-01-29 16:51:00,73.2,67.5,30.11,SE,135,6.0,11.0,82,0.00,,,0.00,meteohub,2013-01-29 21:51:00,
2013-01-29 16:53:00,73.2,67.5,30.11,SW,225,6.0,11.0,82,0.00,,,0.00,meteohub,2013-01-29 21:53:00,
2013-01-29 16:55:00,73.2,67.5,30.11,SE,135,2.0,11.0,82,0.00,,,0.00,meteohub,2013-01-29 21:55:00,
2013-01-29 16:57:00,73.2,67.5,30.11,North,0,3.0,10.0,82,0.00,,,0.00,meteohub,2013-01-29 21:57:00,
2013-01-29 17:00:00,73.2,67.5,30.11,East,90,5.0,10.0,82,0.00,,,0.00,meteohub,2013-01-29 22:00:00,
2013-01-29 17:02:00,73.0,67.3,30.11,SE,135,7.0,8.0,82,0.00,,,0.00,meteohub,2013-01-29 22:02:00,
2013-01-29 17:04:00,73.0,67.3,30.11,SE,135,2.0,8.0,82,0.00,,,0.00,meteohub,2013-01-29 22:04:00,
2013-01-29 17:05:00,73.0,67.3,30.11,South,180,4.0,8.0,82,0.00,,,0.00,meteohub,2013-01-29 22:05:00,
2013-01-29 17:07:00,73.0,67.3,30.11,SE,135,6.0,7.0,82,0.00,,,0.00,meteohub,2013-01-29 22:07:00,
2013-01-29 17:09:00,72.9,67.1,30.11,SW,225,6.0,7.0,82,0.00,,,0.00,meteohub,2013-01-29 22:09:00,
2013-01-29 17:10:00,72.9,67.1,30.11,East,90,3.0,7.0,82,0.00,,,0.00,meteohub,2013-01-29 22:10:00,
2013-01-29 17:12:00,72.9,67.1,30.12,SW,225,7.0,7.0,82,0.00,,,0.00,meteohub,2013-01-29 22:12:00,
2013-01-29 17:15:00,72.7,66.9,30.11,WNW,293,3.0,7.0,82,0.00,,,0.00,meteohub,2013-01-29 22:15:00,
2013-01-29 17:17:00,72.7,66.9,30.11,SW,225,8.0,8.0,82,0.00,,,0.00,meteohub,2013-01-29 22:17:00,
2013-01-29 17:18:00,72.7,66.9,30.11,SW,225,7.0,7.0,82,0.00,,,0.00,meteohub,2013-01-29 22:18:00,
2013-01-29 17:20:00,72.5,66.7,30.11,South,180,3.0,11.0,82,0.00,,,0.00,meteohub,2013-01-29 22:20:00,
2013-01-29 17:22:00,72.5,66.7,30.11,SE,135,2.0,11.0,82,0.00,,,0.00,meteohub,2013-01-29 22:22:00,
2013-01-29 17:24:00,72.5,66.7,30.11,South,180,4.0,11.0,82,0.00,,,0.00,meteohub,2013-01-29 22:24:00,
2013-01-29 17:25:00,72.5,66.7,30.11,South,180,6.0,11.0,82,0.00,,,0.00,meteohub,2013-01-29 22:25:00,
2013-01-29 17:26:00,72.5,66.7,30.11,West,270,1.0,11.0,82,0.00,,,0.00,meteohub,2013-01-29 22:26:00,
2013-01-29 17:27:00,72.5,66.7,30.11,South,180,2.0,11.0,82,0.00,,,0.00,meteohub,2013-01-29 22:27:00,
2013-01-29 17:29:00,72.5,66.7,30.11,South,180,5.0,11.0,82,0.00,,,0.00,meteohub,2013-01-29 22:29:00,
2013-01-29 17:31:00,72.5,66.7,30.11,East,90,3.0,11.0,82,0.00,,,0.00,meteohub,2013-01-29 22:31:00,
2013-01-29 17:33:00,72.5,66.7,30.11,East,90,7.0,11.0,82,0.00,,,0.00,meteohub,2013-01-29 22:33:00,
2013-01-29 17:34:00,72.5,66.7,30.11,South,180,1.0,11.0,82,0.00,,,0.00,meteohub,2013-01-29 22:34:00,
2013-01-29 17:36:00,72.5,66.7,30.11,East,90,4.0,8.0,82,0.00,,,0.00,meteohub,2013-01-29 22:36:00,
2013-01-29 17:38:00,72.5,66.7,30.10,NW,315,4.0,8.0,82,0.00,,,0.00,meteohub,2013-01-29 22:38:00,
2013-01-29 17:41:00,72.5,66.7,30.11,SE,135,4.0,8.0,82,0.00,,,0.00,meteohub,2013-01-29 22:41:00,
2013-01-29 17:42:00,72.5,66.7,30.11,South,180,1.0,8.0,82,0.00,,,0.00,meteohub,2013-01-29 22:42:00,
2013-01-29 17:43:00,72.3,66.6,30.11,SE,135,2.0,8.0,82,0.00,,,0.00,meteohub,2013-01-29 22:43:00,
2013-01-29 17:44:00,72.3,66.6,30.11,SE,135,2.0,8.0,82,0.00,,,0.00,meteohub,2013-01-29 22:44:00,
2013-01-29 17:47:00,72.3,66.6,30.11,South,180,4.0,8.0,82,0.00,,,0.00,meteohub,2013-01-29 22:47:00,
2013-01-29 17:49:00,72.3,66.9,30.11,North,0,2.0,8.0,83,0.00,,,0.00,meteohub,2013-01-29 22:49:00,
2013-01-29 17:51:00,72.3,66.9,30.11,SW,225,2.0,7.0,83,0.00,,,0.00,meteohub,2013-01-29 22:51:00,
2013-01-29 17:52:00,72.3,66.9,30.11,East,90,3.0,7.0,83,0.00,,,0.00,meteohub,2013-01-29 22:52:00,
2013-01-29 17:53:00,72.1,66.7,30.11,West,270,2.0,7.0,83,0.00,,,0.00,meteohub,2013-01-29 22:53:00,
2013-01-29 17:57:00,72.1,66.7,30.10,SW,225,4.0,7.0,83,0.00,,,0.00,meteohub,2013-01-29 22:57:00,
2013-01-29 17:58:00,72.1,66.7,30.10,NE,45,1.0,7.0,83,0.00,,,0.00,meteohub,2013-01-29 22:58:00,
2013-01-29 18:00:00,72.1,66.7,30.10,South,180,3.0,7.0,83,0.00,,,0.00,meteohub,2013-01-29 23:00:00,
2013-01-29 18:02:00,72.1,66.7,30.10,SW,225,4.0,7.0,83,0.00,,,0.00,meteohub,2013-01-29 23:02:00,
2013-01-29 18:03:00,72.1,66.7,30.10,SW,225,4.0,7.0,83,0.00,,,0.00,meteohub,2013-01-29 23:03:00,
2013-01-29 18:05:00,72.1,66.7,30.11,NW,315,2.0,7.0,83,0.00,,,0.00,meteohub,2013-01-29 23:05:00,
2013-01-29 18:08:00,72.1,66.7,30.11,NNE,23,3.0,5.0,83,0.00,,,0.00,meteohub,2013-01-29 23:08:00,
2013-01-29 18:09:00,72.0,66.6,30.11,SW,225,3.0,5.0,83,0.00,,,0.00,meteohub,2013-01-29 23:09:00,
2013-01-29 18:11:00,72.0,66.6,30.11,WNW,293,4.0,5.0,83,0.00,,,0.00,meteohub,2013-01-29 23:11:00,
2013-01-29 18:15:00,72.0,66.6,30.11,North,0,3.0,5.0,83,0.00,,,0.00,meteohub,2013-01-29 23:15:00,
2013-01-29 18:16:00,72.0,66.6,30.11,East,90,3.0,5.0,83,0.00,,,0.00,meteohub,2013-01-29 23:16:00,
2013-01-29 18:17:00,72.0,66.6,30.11,South,180,4.0,5.0,83,0.00,,,0.00,meteohub,2013-01-29 23:17:00,
2013-01-29 18:20:00,71.8,66.4,30.11,SE,135,7.0,7.0,83,0.00,,,0.00,meteohub,2013-01-29 23:20:00,
2013-01-29 18:22:00,72.0,66.6,30.12,SW,225,3.0,5.0,83,0.00,,,0.00,meteohub,2013-01-29 23:22:00,
2013-01-29 18:25:00,71.8,66.4,30.11,North,0,4.0,7.0,83,0.00,,,0.00,meteohub,2013-01-29 23:25:00,
2013-01-29 18:27:00,71.8,66.4,30.11,West,270,6.0,7.0,83,0.00,,,0.00,meteohub,2013-01-29 23:27:00,
2013-01-29 18:31:00,71.8,66.7,30.12,SW,225,4.0,7.0,84,0.00,,,0.00,meteohub,2013-01-29 23:31:00,
2013-01-29 18:32:00,71.8,66.7,30.12,SW,225,3.0,7.0,84,0.00,,,0.00,meteohub,2013-01-29 23:32:00,
2013-01-29 18:34:00,71.8,66.7,30.11,SE,135,3.0,7.0,84,0.00,,,0.00,meteohub,2013-01-29 23:34:00,
2013-01-29 18:36:00,71.8,66.7,30.12,SW,225,3.0,6.0,84,0.00,,,0.00,meteohub,2013-01-29 23:36:00,
2013-01-29 18:37:00,71.8,66.7,30.12,SE,135,4.0,6.0,84,0.00,,,0.00,meteohub,2013-01-29 23:37:00,
2013-01-29 18:39:00,71.8,66.7,30.12,North,0,2.0,6.0,84,0.00,,,0.00,meteohub,2013-01-29 23:39:00,
2013-01-29 18:41:00,71.8,66.7,30.12,North,0,2.0,6.0,84,0.00,,,0.00,meteohub,2013-01-29 23:41:00,
2013-01-29 18:42:00,71.6,66.6,30.12,South,180,2.0,6.0,84,0.00,,,0.00,meteohub,2013-01-29 23:42:00,
2013-01-29 18:43:00,71.6,66.6,30.11,South,180,7.0,7.0,84,0.00,,,0.00,meteohub,2013-01-29 23:43:00,
2013-01-29 18:46:00,71.6,66.6,30.12,SE,135,1.0,7.0,84,0.00,,,0.00,meteohub,2013-01-29 23:46:00,
2013-01-29 18:47:00,71.6,66.6,30.12,SE,135,1.0,7.0,84,0.00,,,0.00,meteohub,2013-01-29 23:47:00,
2013-01-29 18:48:00,71.6,66.6,30.11,SW,225,2.0,7.0,84,0.00,,,0.00,meteohub,2013-01-29 23:48:00,
2013-01-29 18:51:00,71.4,66.7,30.11,East,90,1.0,7.0,85,0.00,,,0.00,meteohub,2013-01-29 23:51:00,
2013-01-29 18:52:00,71.4,66.7,30.11,West,270,2.0,7.0,85,0.00,,,0.00,meteohub,2013-01-29 23:52:00,
2013-01-29 18:53:00,71.4,66.7,30.11,North,0,2.0,7.0,85,0.00,,,0.00,meteohub,2013-01-29 23:53:00,
2013-01-29 18:54:00,71.4,66.7,30.12,South,180,2.0,7.0,85,0.00,,,0.00,meteohub,2013-01-29 23:54:00,
2013-01-29 18:58:00,71.4,66.7,30.12,East,90,2.0,7.0,85,0.00,,,0.00,meteohub,2013-01-29 23:58:00,
2013-01-29 19:00:00,71.4,66.7,30.12,West,270,6.0,7.0,85,0.00,,,0.00,meteohub,2013-01-30 00:00:00,
2013-01-29 19:03:00,71.4,67.1,30.11,South,180,4.0,4.0,86,0.00,,,0.00,meteohub,2013-01-30 00:03:00,
2013-01-29 19:04:00,71.4,67.1,30.11,NW,315,4.0,4.0,86,0.00,,,0.00,meteohub,2013-01-30 00:04:00,
2013-01-29 19:05:00,71.4,67.1,30.11,NW,315,4.0,4.0,86,0.00,,,0.00,meteohub,2013-01-30 00:05:00,
2013-01-29 19:06:00,71.4,67.1,30.11,SW,225,3.0,6.0,86,0.00,,,0.00,meteohub,2013-01-30 00:06:00,
2013-01-29 19:10:00,71.2,66.9,30.11,SW,225,2.0,6.0,86,0.00,,,0.00,meteohub,2013-01-30 00:10:00,
2013-01-29 19:11:00,71.2,66.9,30.11,SE,135,1.0,6.0,86,0.00,,,0.00,meteohub,2013-01-30 00:11:00,
2013-01-29 19:12:00,71.2,66.9,30.11,East,90,2.0,6.0,86,0.00,,,0.00,meteohub,2013-01-30 00:12:00,
2013-01-29 19:15:00,71.2,66.9,30.11,SW,225,2.0,5.0,86,0.00,,,0.00,meteohub,2013-01-30 00:15:00,
2013-01-29 19:16:00,71.2,66.9,30.11,SW,225,2.0,5.0,86,0.00,,,0.00,meteohub,2013-01-30 00:16:00,
2013-01-29 19:17:00,71.2,66.9,30.11,NW,315,3.0,5.0,86,0.00,,,0.00,meteohub,2013-01-30 00:17:00,
2013-01-29 19:21:00,71.2,66.9,30.11,South,180,5.0,6.0,86,0.00,,,0.00,meteohub,2013-01-30 00:21:00,
2013-01-29 19:22:00,71.2,66.9,30.11,South,180,5.0,6.0,86,0.00,,,0.00,meteohub,2013-01-30 00:22:00,
2013-01-29 19:23:00,71.2,66.9,30.11,SW,225,2.0,6.0,86,0.00,,,0.00,meteohub,2013-01-30 00:23:00,
2013-01-29 19:27:00,71.4,67.1,30.11,SE,135,4.0,6.0,86,0.00,,,0.00,meteohub,2013-01-30 00:27:00,
2013-01-29 19:28:00,71.4,67.1,30.11,SE,135,4.0,6.0,86,0.00,,,0.00,meteohub,2013-01-30 00:28:00,
2013-01-29 19:29:00,71.4,67.1,30.11,East,90,2.0,6.0,86,0.00,,,0.00,meteohub,2013-01-30 00:29:00,
2013-01-29 19:33:00,71.4,67.1,30.11,SE,135,3.0,5.0,86,0.00,,,0.00,meteohub,2013-01-30 00:33:00,
2013-01-29 19:34:00,71.4,67.1,30.11,East,90,4.0,5.0,86,0.00,,,0.00,meteohub,2013-01-30 00:34:00,
2013-01-29 19:35:00,71.6,66.9,30.11,South,180,2.0,5.0,85,0.00,,,0.00,meteohub,2013-01-30 00:35:00,
2013-01-29 19:38:00,71.6,66.9,30.11,SE,135,2.0,5.0,85,0.00,,,0.00,meteohub,2013-01-30 00:38:00,
2013-01-29 19:40:00,71.6,66.9,30.11,SE,135,4.0,5.0,85,0.00,,,0.00,meteohub,2013-01-30 00:40:00,
2013-01-29 19:41:00,71.8,67.1,30.12,SW,225,3.0,4.0,85,0.00,,,0.00,meteohub,2013-01-30 00:41:00,
2013-01-29 19:42:00,71.8,67.1,30.12,NW,315,4.0,4.0,85,0.00,,,0.00,meteohub,2013-01-30 00:42:00,
2013-01-29 19:45:00,71.8,66.7,30.11,West,270,4.0,4.0,84,0.00,,,0.00,meteohub,2013-01-30 00:45:00,
2013-01-29 19:47:00,71.8,66.7,30.11,South,180,8.0,8.0,84,0.00,,,0.00,meteohub,2013-01-30 00:47:00,
2013-01-29 19:51:00,71.8,66.7,30.12,SE,135,10.0,10.0,84,0.00,,,0.00,meteohub,2013-01-30 00:51:00,
2013-01-29 19:52:00,71.8,66.7,30.12,NW,315,2.0,8.0,84,0.00,,,0.00,meteohub,2013-01-30 00:52:00,
2013-01-29 19:53:00,71.8,66.7,30.12,NE,45,2.0,8.0,84,0.00,,,0.00,meteohub,2013-01-30 00:53:00,
2013-01-29 19:55:00,71.8,66.7,30.12,SE,135,4.0,10.0,84,0.00,,,0.00,meteohub,2013-01-30 00:55:00,
2013-01-29 19:56:00,71.8,66.7,30.12,SE,135,4.0,10.0,84,0.00,,,0.00,meteohub,2013-01-30 00:56:00,
2013-01-29 19:58:00,71.8,67.1,30.12,East,90,5.0,10.0,85,0.00,,,0.00,meteohub,2013-01-30 00:58:00,
2013-01-29 20:00:00,71.8,67.1,30.12,SE,135,4.0,10.0,85,0.00,,,0.00,meteohub,2013-01-30 01:00:00,
2013-01-29 20:01:00,71.8,67.1,30.12,SE,135,2.0,10.0,85,0.00,,,0.00,meteohub,2013-01-30 01:01:00,
2013-01-29 20:02:00,71.8,67.1,30.11,SW,225,4.0,10.0,85,0.00,,,0.00,meteohub,2013-01-30 01:02:00,
2013-01-29 20:04:00,71.8,67.1,30.12,South,180,5.0,10.0,85,0.00,,,0.00,meteohub,2013-01-30 01:04:00,
2013-01-29 20:07:00,71.8,67.1,30.12,SE,135,4.0,10.0,85,0.00,,,0.00,meteohub,2013-01-30 01:07:00,
2013-01-29 20:08:00,71.8,67.1,30.12,South,180,2.0,10.0,85,0.00,,,0.00,meteohub,2013-01-30 01:08:00,
2013-01-29 20:09:00,71.8,67.1,30.12,South,180,4.0,10.0,85,0.00,,,0.00,meteohub,2013-01-30 01:09:00,
2013-01-29 20:10:00,71.8,67.1,30.12,SW,225,8.0,8.0,85,0.00,,,0.00,meteohub,2013-01-30 01:10:00,
2013-01-29 20:12:00,71.8,67.1,30.12,SE,135,7.0,7.0,85,0.00,,,0.00,meteohub,2013-01-30 01:12:00,
2013-01-29 20:13:00,71.8,67.1,30.12,WSW,248,4.0,6.0,85,0.00,,,0.00,meteohub,2013-01-30 01:13:00,
2013-01-29 20:17:00,72.0,67.3,30.12,South,180,5.0,8.0,85,0.00,,,0.00,meteohub,2013-01-30 01:17:00,
2013-01-29 20:19:00,72.0,67.3,30.12,SW,225,4.0,8.0,85,0.00,,,0.00,meteohub,2013-01-30 01:19:00,
2013-01-29 20:20:00,72.0,66.9,30.12,East,90,4.0,8.0,84,0.00,,,0.00,meteohub,2013-01-30 01:20:00,
2013-01-29 20:22:00,72.0,66.9,30.12,NE,45,4.0,8.0,84,0.00,,,0.00,meteohub,2013-01-30 01:22:00,
2013-01-29 20:23:00,72.0,66.9,30.11,NW,315,2.0,8.0,84,0.00,,,0.00,meteohub,2013-01-30 01:23:00,
2013-01-29 20:24:00,72.0,66.9,30.12,SW,225,8.0,8.0,84,0.00,,,0.00,meteohub,2013-01-30 01:24:00,
2013-01-29 20:27:00,72.0,66.9,30.11,South,180,3.0,8.0,84,0.00,,,0.00,meteohub,2013-01-30 01:27:00,
2013-01-29 20:29:00,72.0,66.9,30.12,South,180,3.0,8.0,84,0.00,,,0.00,meteohub,2013-01-30 01:29:00,
2013-01-29 20:32:00,72.0,66.9,30.12,SE,135,4.0,8.0,84,0.00,,,0.00,meteohub,2013-01-30 01:32:00,
2013-01-29 20:35:00,72.0,66.9,30.11,SE,135,5.0,8.0,84,0.00,,,0.00,meteohub,2013-01-30 01:35:00,
2013-01-29 20:37:00,72.0,66.9,30.12,South,180,8.0,8.0,84,0.00,,,0.00,meteohub,2013-01-30 01:37:00,
2013-01-29 20:40:00,72.0,66.9,30.11,SE,135,2.0,8.0,84,0.00,,,0.00,meteohub,2013-01-30 01:40:00,
2013-01-29 20:41:00,72.0,66.9,30.11,SW,225,4.0,8.0,84,0.00,,,0.00,meteohub,2013-01-30 01:41:00,
2013-01-29 20:42:00,72.0,66.9,30.11,West,270,2.0,8.0,84,0.00,,,0.00,meteohub,2013-01-30 01:42:00,
2013-01-29 20:43:00,72.0,66.9,30.11,NE,45,3.0,8.0,84,0.00,,,0.00,meteohub,2013-01-30 01:43:00,
2013-01-29 20:46:00,72.0,66.9,30.11,South,180,4.0,8.0,84,0.00,,,0.00,meteohub,2013-01-30 01:46:00,
2013-01-29 20:47:00,72.0,66.9,30.11,South,180,2.0,8.0,84,0.00,,,0.00,meteohub,2013-01-30 01:47:00,
2013-01-29 20:48:00,72.0,67.3,30.11,West,270,2.0,8.0,85,0.00,,,0.00,meteohub,2013-01-30 01:48:00,
2013-01-29 20:52:00,71.8,67.1,30.11,South,180,2.0,8.0,85,0.00,,,0.00,meteohub,2013-01-30 01:52:00,
2013-01-29 20:53:00,71.8,67.1,30.11,SW,225,3.0,8.0,85,0.00,,,0.00,meteohub,2013-01-30 01:53:00,
2013-01-29 20:57:00,71.8,67.1,30.11,West,270,2.0,5.0,85,0.00,,,0.00,meteohub,2013-01-30 01:57:00,
2013-01-29 20:58:00,71.8,67.1,30.11,SW,225,5.0,5.0,85,0.00,,,0.00,meteohub,2013-01-30 01:58:00,
2013-01-29 20:59:00,71.8,67.1,30.11,South,180,2.0,5.0,85,0.00,,,0.00,meteohub,2013-01-30 01:59:00,
2013-01-29 21:02:00,71.8,67.1,30.11,SW,225,4.0,5.0,85,0.00,,,0.00,meteohub,2013-01-30 02:02:00,
2013-01-29 21:04:00,71.8,67.1,30.11,East,90,2.0,5.0,85,0.00,,,0.00,meteohub,2013-01-30 02:04:00,
2013-01-29 21:05:00,71.8,67.1,30.10,NW,315,3.0,5.0,85,0.00,,,0.00,meteohub,2013-01-30 02:05:00,
2013-01-29 21:09:00,71.8,67.1,30.10,SW,225,4.0,5.0,85,0.00,,,0.00,meteohub,2013-01-30 02:09:00,
2013-01-29 21:10:00,71.8,66.7,30.11,South,180,2.0,8.0,84,0.00,,,0.00,meteohub,2013-01-30 02:10:00,
2013-01-29 21:12:00,71.8,66.7,30.10,SE,135,3.0,8.0,84,0.00,,,0.00,meteohub,2013-01-30 02:12:00,
2013-01-29 21:14:00,71.8,66.7,30.10,SW,225,4.0,8.0,84,0.00,,,0.00,meteohub,2013-01-30 02:14:00,
2013-01-29 21:16:00,71.8,66.7,30.10,North,0,2.0,8.0,84,0.00,,,0.00,meteohub,2013-01-30 02:16:00,
2013-01-29 21:20:00,71.8,66.7,30.10,East,90,2.0,8.0,84,0.00,,,0.00,meteohub,2013-01-30 02:20:00,
2013-01-29 21:21:00,71.8,66.7,30.10,SE,135,4.0,8.0,84,0.00,,,0.00,meteohub,2013-01-30 02:21:00,
2013-01-29 21:22:00,71.8,66.7,30.10,NE,45,2.0,8.0,84,0.00,,,0.00,meteohub,2013-01-30 02:22:00,
2013-01-29 21:25:00,71.8,66.7,30.10,East,90,5.0,8.0,84,0.00,,,0.00,meteohub,2013-01-30 02:25:00,
2013-01-29 21:27:00,71.8,66.7,30.10,East,90,4.0,6.0,84,0.00,,,0.00,meteohub,2013-01-30 02:27:00,
2013-01-29 21:28:00,72.0,66.9,30.10,West,270,2.0,6.0,84,0.00,,,0.00,meteohub,2013-01-30 02:28:00,
2013-01-29 21:30:00,72.0,66.9,30.10,NE,45,2.0,6.0,84,0.00,,,0.00,meteohub,2013-01-30 02:30:00,
2013-01-29 21:33:00,72.0,66.9,30.10,NW,315,4.0,5.0,84,0.00,,,0.00,meteohub,2013-01-30 02:33:00,
2013-01-29 21:36:00,72.0,67.3,30.09,South,180,4.0,5.0,85,0.00,,,0.00,meteohub,2013-01-30 02:36:00,
2013-01-29 21:37:00,72.0,67.3,30.09,South,180,4.0,5.0,85,0.00,,,0.00,meteohub,2013-01-30 02:37:00,
2013-01-29 21:38:00,72.0,67.3,30.10,East,90,3.0,5.0,85,0.00,,,0.00,meteohub,2013-01-30 02:38:00,
2013-01-29 21:40:00,72.1,67.5,30.10,SE,135,10.0,10.0,85,0.00,,,0.00,meteohub,2013-01-30 02:40:00,
2013-01-29 21:43:00,72.1,67.5,30.09,South,180,4.0,6.0,85,0.00,,,0.00,meteohub,2013-01-30 02:43:00,
2013-01-29 21:44:00,72.1,67.5,30.09,South,180,4.0,6.0,85,0.00,,,0.00,meteohub,2013-01-30 02:44:00,
2013-01-29 21:47:00,72.1,67.5,30.09,SW,225,5.0,10.0,85,0.00,,,0.00,meteohub,2013-01-30 02:47:00,
2013-01-29 21:49:00,72.1,67.5,30.09,SW,225,4.0,10.0,85,0.00,,,0.00,meteohub,2013-01-30 02:49:00,
2013-01-29 21:50:00,72.1,67.5,30.09,South,180,12.0,12.0,85,0.00,,,0.00,meteohub,2013-01-30 02:50:00,
2013-01-29 21:52:00,72.1,67.5,30.10,South,180,12.0,12.0,85,0.00,,,0.00,meteohub,2013-01-30 02:52:00,
2013-01-29 21:55:00,72.1,67.5,30.09,NW,315,3.0,12.0,85,0.00,,,0.00,meteohub,2013-01-30 02:55:00,
2013-01-29 21:56:00,72.1,67.5,30.09,NW,315,3.0,12.0,85,0.00,,,0.00,meteohub,2013-01-30 02:56:00,
2013-01-29 21:57:00,72.1,67.5,30.09,South,180,4.0,12.0,85,0.00,,,0.00,meteohub,2013-01-30 02:57:00,
2013-01-29 22:00:00,72.1,67.5,30.10,SE,135,2.0,12.0,85,0.00,,,0.00,meteohub,2013-01-30 03:00:00,
2013-01-29 22:01:00,72.1,67.5,30.10,SE,135,2.0,12.0,85,0.00,,,0.00,meteohub,2013-01-30 03:01:00,
2013-01-29 22:02:00,72.1,67.5,30.09,SE,135,1.0,12.0,85,0.00,,,0.00,meteohub,2013-01-30 03:02:00,
2013-01-29 22:04:00,72.1,67.5,30.10,SE,135,2.0,12.0,85,0.00,,,0.00,meteohub,2013-01-30 03:04:00,
2013-01-29 22:06:00,72.1,67.5,30.09,North,0,2.0,12.0,85,0.00,,,0.00,meteohub,2013-01-30 03:06:00,
2013-01-29 22:07:00,72.1,67.5,30.10,SW,225,2.0,12.0,85,0.00,,,0.00,meteohub,2013-01-30 03:07:00,
2013-01-29 22:09:00,72.0,67.3,30.10,SW,225,2.0,12.0,85,0.00,,,0.00,meteohub,2013-01-30 03:09:00,
2013-01-29 22:10:00,72.0,67.3,30.10,SW,225,2.0,12.0,85,0.00,,,0.00,meteohub,2013-01-30 03:10:00,
2013-01-29 22:12:00,72.0,67.3,30.10,East,90,4.0,5.0,85,0.00,,,0.00,meteohub,2013-01-30 03:12:00,
2013-01-29 22:15:00,72.0,67.3,30.10,South,180,2.0,5.0,85,0.00,,,0.00,meteohub,2013-01-30 03:15:00,
2013-01-29 22:17:00,72.0,67.3,30.10,NE,45,2.0,4.0,85,0.00,,,0.00,meteohub,2013-01-30 03:17:00,
2013-01-29 22:18:00,72.1,67.5,30.10,West,270,2.0,4.0,85,0.00,,,0.00,meteohub,2013-01-30 03:18:00,
2013-01-29 22:21:00,72.1,67.5,30.10,East,90,2.0,7.0,85,0.00,,,0.00,meteohub,2013-01-30 03:21:00,
2013-01-29 22:22:00,72.1,67.5,30.11,SE,135,2.0,7.0,85,0.00,,,0.00,meteohub,2013-01-30 03:22:00,
2013-01-29 22:26:00,72.1,67.5,30.10,SE,135,2.0,7.0,85,0.00,,,0.00,meteohub,2013-01-30 03:26:00,
2013-01-29 22:27:00,72.1,67.1,30.10,SW,225,4.0,7.0,84,0.00,,,0.00,meteohub,2013-01-30 03:27:00,
2013-01-29 22:28:00,72.1,67.1,30.10,SW,225,4.0,7.0,84,0.00,,,0.00,meteohub,2013-01-30 03:28:00,
2013-01-29 22:31:00,72.3,67.3,30.10,South,180,7.0,7.0,84,0.00,,,0.00,meteohub,2013-01-30 03:31:00,
2013-01-29 22:32:00,72.3,67.3,30.10,SW,225,2.0,5.0,84,0.00,,,0.00,meteohub,2013-01-30 03:32:00,
2013-01-29 22:33:00,72.3,67.3,30.11,East,90,2.0,5.0,84,0.00,,,0.00,meteohub,2013-01-30 03:33:00,
2013-01-29 22:37:00,72.3,67.3,30.10,South,180,8.0,8.0,84,0.00,,,0.00,meteohub,2013-01-30 03:37:00,
2013-01-29 22:38:00,72.3,67.3,30.11,South,180,4.0,7.0,84,0.00,,,0.00,meteohub,2013-01-30 03:38:00,
2013-01-29 22:41:00,72.3,67.3,30.10,NE,45,3.0,8.0,84,0.00,,,0.00,meteohub,2013-01-30 03:41:00,
2013-01-29 22:43:00,72.3,67.3,30.10,North,0,2.0,8.0,84,0.00,,,0.00,meteohub,2013-01-30 03:43:00,
2013-01-29 22:44:00,72.3,67.3,30.11,SE,135,5.0,8.0,84,0.00,,,0.00,meteohub,2013-01-30 03:44:00,
2013-01-29 22:45:00,72.3,67.3,30.11,NW,315,5.0,8.0,84,0.00,,,0.00,meteohub,2013-01-30 03:45:00,
2013-01-29 22:48:00,72.3,67.3,30.11,NE,45,3.0,8.0,84,0.00,,,0.00,meteohub,2013-01-30 03:48:00,
2013-01-29 22:50:00,72.3,67.3,30.11,East,90,2.0,8.0,84,0.00,,,0.00,meteohub,2013-01-30 03:50:00,
2013-01-29 22:51:00,72.3,67.3,30.11,NW,315,4.0,8.0,84,0.00,,,0.00,meteohub,2013-01-30 03:51:00,
2013-01-29 22:53:00,72.3,67.3,30.11,South,180,4.0,8.0,84,0.00,,,0.00,meteohub,2013-01-30 03:53:00,
2013-01-29 22:56:00,72.3,67.3,30.10,NW,315,7.0,7.0,84,0.00,,,0.00,meteohub,2013-01-30 03:56:00,
2013-01-29 22:57:00,72.3,67.3,30.11,East,90,5.0,6.0,84,0.00,,,0.00,meteohub,2013-01-30 03:57:00,
2013-01-29 22:58:00,72.3,67.6,30.10,SW,225,5.0,6.0,85,0.00,,,0.00,meteohub,2013-01-30 03:58:00,
2013-01-29 23:00:00,72.1,67.5,30.10,SE,135,2.0,6.0,85,0.00,,,0.00,meteohub,2013-01-30 04:00:00,
2013-01-29 23:03:00,72.1,67.5,30.11,NE,45,2.0,7.0,85,0.00,,,0.00,meteohub,2013-01-30 04:03:00,
2013-01-29 23:04:00,72.1,67.5,30.10,South,180,4.0,7.0,85,0.00,,,0.00,meteohub,2013-01-30 04:04:00,
2013-01-29 23:05:00,72.0,67.3,30.10,West,270,3.0,7.0,85,0.00,,,0.00,meteohub,2013-01-30 04:05:00,
2013-01-29 23:07:00,72.0,67.3,30.10,South,180,4.0,7.0,85,0.00,,,0.00,meteohub,2013-01-30 04:07:00,
2013-01-29 23:08:00,72.0,67.3,30.11,East,90,2.0,7.0,85,0.00,,,0.00,meteohub,2013-01-30 04:08:00,
2013-01-29 23:10:00,72.0,67.3,30.11,SW,225,4.0,7.0,85,0.00,,,0.00,meteohub,2013-01-30 04:10:00,
2013-01-29 23:12:00,71.8,67.3,30.11,South,180,3.0,7.0,86,0.00,,,0.00,meteohub,2013-01-30 04:12:00,
2013-01-29 23:15:00,71.8,67.3,30.11,SW,225,2.0,7.0,86,0.00,,,0.00,meteohub,2013-01-30 04:15:00,
2013-01-29 23:18:00,71.8,67.3,30.11,SW,225,2.0,5.0,86,0.00,,,0.00,meteohub,2013-01-30 04:18:00,
2013-01-29 23:19:00,71.8,67.3,30.11,SW,225,2.0,5.0,86,0.00,,,0.00,meteohub,2013-01-30 04:19:00,
2013-01-29 23:20:00,71.8,67.3,30.11,SW,225,3.0,5.0,86,0.00,,,0.00,meteohub,2013-01-30 04:20:00,
2013-01-29 23:23:00,71.8,67.6,30.11,East,90,3.0,5.0,87,0.00,,,0.00,meteohub,2013-01-30 04:23:00,
2013-01-29 23:24:00,71.8,67.6,30.11,East,90,3.0,5.0,87,0.00,,,0.00,meteohub,2013-01-30 04:24:00,
2013-01-29 23:27:00,71.8,67.6,30.11,SE,135,5.0,7.0,87,0.00,,,0.00,meteohub,2013-01-30 04:27:00,
2013-01-29 23:29:00,71.8,67.6,30.11,South,180,8.0,8.0,87,0.00,,,0.00,meteohub,2013-01-30 04:29:00,
2013-01-29 23:30:00,71.8,67.6,30.11,WSW,248,4.0,7.0,87,0.00,,,0.00,meteohub,2013-01-30 04:30:00,
2013-01-29 23:32:00,71.8,67.6,30.11,South,180,4.0,9.0,87,0.00,,,0.00,meteohub,2013-01-30 04:32:00,
2013-01-29 23:35:00,71.8,68.0,30.11,NE,45,2.0,9.0,88,0.00,,,0.00,meteohub,2013-01-30 04:35:00,
2013-01-29 23:37:00,71.8,68.0,30.11,South,180,3.0,9.0,88,0.00,,,0.00,meteohub,2013-01-30 04:37:00,
2013-01-29 23:38:00,71.8,68.0,30.11,South,180,2.0,9.0,88,0.00,,,0.00,meteohub,2013-01-30 04:38:00,
2013-01-29 23:42:00,71.8,68.0,30.11,East,90,2.0,9.0,88,0.00,,,0.00,meteohub,2013-01-30 04:42:00,
2013-01-29 23:44:00,71.8,68.0,30.11,East,90,2.0,9.0,88,0.00,,,0.00,meteohub,2013-01-30 04:44:00,
2013-01-29 23:48:00,71.8,68.0,30.10,NE,45,1.0,8.0,88,0.00,,,0.00,meteohub,2013-01-30 04:48:00,
2013-01-29 23:49:00,71.8,68.0,30.10,East,90,1.0,8.0,88,0.00,,,0.00,meteohub,2013-01-30 04:49:00,
2013-01-29 23:52:00,71.8,67.6,30.10,East,90,2.0,8.0,87,0.00,,,0.00,meteohub,2013-01-30 04:52:00,
2013-01-29 23:53:00,71.6,67.5,30.10,SE,135,1.0,8.0,87,0.00,,,0.00,meteohub,2013-01-30 04:53:00,
2013-01-29 23:54:00,71.6,67.5,30.09,SE,135,2.0,8.0,87,0.00,,,0.00,meteohub,2013-01-30 04:54:00,
2013-01-29 23:55:00,71.6,67.5,30.10,East,90,1.0,8.0,87,0.00,,,0.00,meteohub,2013-01-30 04:55:00,
2013-01-29 23:57:00,71.6,67.5,30.09,North,0,2.0,8.0,87,0.00,,,0.00,meteohub,2013-01-30 04:57:00,
2013-01-29 23:58:00,71.4,67.6,30.09,NE,45,2.0,8.0,88,0.00,,,0.00,meteohub,2013-01-30 04:58:00,